GFSSGP_con_mlcape_105.txt.gz
CAPE
88 0 390 888 0 0 0 0 0 0 0 0 0 0 0 0 0 0 108 85 35 166 167 1233 949 866 895 841 789 769 751 724 564 471 202 6 8 8 4 2 1 65 55 11 31 49 43 48 22
70 43 90 335 0 0 0 0 0 0 0 0 0 0 0 0 133 131 104 105 140 127 1062 980 812 665 882 949 643 683 638 487 288 92 6 6 2 2 1 0 1 185 92 31 34 17 15 38 0
0 46 240 50 0 0 0 0 0 0 0 0 0 1 47 28 193 118 78 278 142 861 1111 856 861 547 474 696 328 315 450 47 6 3 2 3 2 0 1 3 48 149 116 55 15 1 55 3 0
0 43 137 29 0 0 0 0 0 1 0 3 2 0 33 44 239 236 289 476 317 975 931 965 785 430 663 544 214 90 17 7 1 2 2 3 6 6 5 5 227 189 133 64 6 0 58 6 0
0 181 52 9 19 84 84 57 34 28 40 17 0 0 25 68 67 113 448 495 197 681 903 852 376 137 101 48 4 4 2 1 2 4 4 14 9 4 108 74 10 82 77 8 2 0 22 0 0
0 39 31 0 54 220 255 164 84 105 64 41 12 3 51 4 80 59 412 319 470 578 868 650 198 116 16 1 1 1 1 2 3 171 334 47 7 5 14 7 12 5 1 1 0 0 0 0 0
0 33 5 38 103 247 346 289 184 126 104 85 42 10 0 118 21 15 39 314 589 565 558 500 94 10 0 0 1 1 2 23 321 180 63 26 3 4 4 3 2 0 0 0 0 0 0 0 0
0 0 0 6 53 171 394 236 269 261 254 101 85 14 32 55 124 0 0 338 599 414 259 63 0 0 1 5 60 94 387 518 332 79 46 5 3 4 0 0 0 0 0 0 0 0 0 0 0
0 0 0 0 45 190 171 23 149 17 126 117 77 55 47 79 200 110 96 201 289 203 118 2 0 1 36 143 481 625 624 488 178 49 5 2 0 0 0 0 0 0 0 0 0 0 0 0 0
0 0 0 0 36 35 70 3 0 0 0 47 100 106 16 216 278 297 257 159 132 94 49 0 0 7 124 470 628 616 579 169 0 0 0 0 0 0 0 0 0 0 0 0 0 0 0 0 0
0 0 0 0 0 0 0 0 0 0 0 0 92 126 88 338 363 394 357 160 110 38 30 5 4 50 328 585 474 305 33 0 0 0 0 0 0 0 0 0 0 0 0 0 0 0 0 0 0
0 0 0 0 0 0 0 0 0 0 0 0 7 175 175 331 415 399 350 147 93 78 50 10 12 145 579 553 333 121 0 0 0 0 0 0 0 0 0 0 0 0 0 0 0 0 0 0 0
0 0 0 0 0 0 0 0 0 0 0 0 217 293 301 201 341 354 256 135 40 40 19 2 40 231 593 496 211 11 0 0 0 0 0 0 0 0 0 0 0 0 0 0 0 0 0 0 0
0 0 0 0 0 0 0 0 0 0 0 0 135 338 320 354 223 229 293 265 43 18 0 0 23 323 583 388 211 0 0 0 0 0 0 0 0 0 0 0 0 0 0 0 0 0 0 0 0
0 0 0 0 0 0 0 0 0 0 0 0 3 369 496 215 183 184 283 86 1 22 0 0 10 383 569 329 178 0 0 0 0 0 0 0 0 0 0 0 0 0 0 0 0 0 0 0 0
0 0 0 0 0 0 0 0 0 0 0 0 0 166 556 481 292 234 229 9 5 1 0 0 17 424 536 238 96 0 0 0 0 0 0 0 0 0 0 0 0 0 0 0 0 0 0 0 0
0 0 0 0 0 0 0 0 0 0 0 0 0 0 61 525 407 338 176 42 4 10 0 0 53 368 437 168 16 0 0 0 0 0 0 0 0 0 0 0 0 0 0 0 0 0 0 0 0
0 0 0 0 0 0 0 0 0 0 0 0 0 0 0 162 446 492 229 88 73 0 0 0 111 469 467 44 0 0 0 0 0 0 0 0 0 0 0 0 0 0 0 0 0 0 0 0 0
0 0 0 0 0 0 0 0 0 0 0 0 0 0 0 0 190 549 387 266 84 4 0 0 144 429 232 33 0 0 0 0 0 0 0 0 0 0 0 0 0 0 0 0 0 0 0 0 0
0 0 0 0 0 0 0 0 0 0 0 0 0 0 0 0 0 216 347 235 148 32 12 21 98 164 93 0 0 0 0 0 0 0 0 0 0 0 0 0 0 0 0 0 0 0 0 0 0
0 0 0 0 0 0 0 0 0 0 0 0 0 0 0 0 0 0 429 280 168 90 72 83 117 70 0 0 0 0 0 0 0 0 0 0 0 0 0 0 0 0 0 0 0 0 0 0 0
0 0 1 3 7 3 0 0 0 0 0 0 0 0 0 0 0 9 307 367 204 140 192 146 70 0 0 0 0 0 0 0 0 0 0 0 0 0 0 0 0 0 0 0 0 0 0 0 0
0 0 0 0 0 3 0 0 0 0 1 0 0 0 0 0 3 0 364 532 274 386 304 103 7 2 1 0 0 0 0 0 0 0 0 0 0 0 0 0 0 0 0 0 0 0 0 0 0
0 0 0 0 0 0 0 0 0 4 19 1 0 0 0 0 530 556 545 509 464 573 381 166 60 19 2 1 1 0 0 0 0 0 0 0 0 0 0 0 0 0 0 0 0 0 0 0 0
0 0 0 0 0 0 0 0 0 7 24 38 15 67 119 79 693 834 744 609 549 390 345 111 39 4 2 1 1 4 0 0 0 0 0 0 0 0 0 0 0 0 0 0 0 0 0 0 0
0 0 0 0 0 0 0 0 3 1 53 106 1 77 256 315 363 674 658 519 406 513 160 17 9 2 1 0 0 0 0 0 1 0 0 0 0 0 0 0 0 0 0 0 0 0 0 0 0
0 0 0 0 0 0 0 0 1 2 4 79 3 1 42 92 100 81 208 333 369 687 299 185 69 3 0 1 0 0 0 0 0 0 0 0 0 0 0 0 0 0 0 0 0 0 0 0 0
0 0 0 0 0 0 0 0 0 0 0 0 17 0 0 0 0 14 7 31 36 34 66 26 6 1 1 2 1 0 0 0 0 0 0 0 0 0 0 0 0 0 0 0 0 0 0 0 0
0 0 0 0 0 0 0 0 0 0 0 0 0 0 0 0 0 0 0 0 0 0 2 1 0 0 0 0 0 0 0 0 0 0 0 0 0 0 0 0 0 0 0 0 0 0 0 0 0
0 0 0 0 0 0 0 0 0 0 0 0 0 0 0 0 0 0 0 0 0 0 0 0 0 0 0 0 0 0 0 0 0 0 0 0 0 0 0 0 0 0 0 0 0 0 0 0 0

GFSSGP_con_mlcape_108.txt.gz
CAPE
79 4 585 622 0 0 0 0 0 0 0 0 0 0 0 0 0 0 15 58 4 0 721 820 1151 1113 1092 1007 970 933 865 762 631 539 238 4 5 4 1 0 152 6 2 45 25 56 19 1 1
10 54 135 243 0 0 0 0 0 0 0 0 0 0 0 2 80 132 95 72 33 1 445 1222 1188 961 1049 1009 1040 886 813 753 515 118 4 6 3 2 0 0 165 52 29 28 4 56 2 0 0
0 111 287 86 0 0 0 0 0 0 0 2 0 10 25 52 173 165 72 195 181 65 920 1122 1097 975 1040 969 908 786 677 417 70 4 4 3 3 1 1 25 137 100 17 4 34 20 1 0 0
0 139 179 32 0 2 0 0 0 0 5 20 3 0 31 62 176 168 190 331 236 614 983 1225 924 907 986 809 881 644 89 2 4 1 2 5 4 6 7 279 160 119 26 8 103 29 1 0 0
0 187 14 20 20 105 141 120 55 32 36 49 23 4 17 52 165 299 405 436 332 869 907 929 912 1040 873 575 112 123 98 3 1 2 7 8 6 20 2 137 170 118 22 7 54 20 1 0 0
0 120 16 0 46 227 291 241 122 129 150 83 35 28 46 23 333 554 627 416 819 814 895 864 615 537 589 300 61 22 4 3 3 3 15 19 50 94 50 58 14 8 7 1 1 10 0 0 0
0 20 0 14 67 277 395 443 288 113 123 128 52 23 10 142 289 653 626 476 798 868 599 432 236 153 123 28 5 3 3 1 54 179 100 49 15 12 4 7 7 4 0 0 1 2 0 0 0
0 0 0 0 0 91 330 221 398 67 43 222 113 54 45 186 174 465 549 470 515 537 402 114 79 15 0 0 2 1 1 46 332 247 47 20 7 9 4 1 0 0 0 0 0 0 0 0 0
1 0 0 0 24 117 93 79 83 6 0 65 195 84 98 173 130 382 391 470 409 367 292 66 0 0 0 0 1 17 191 242 121 37 12 7 0 0 0 0 0 0 0 0 0 0 0 0 0
0 0 0 0 20 6 11 0 0 0 0 0 41 139 255 266 283 269 220 243 361 305 155 7 0 1 3 53 223 307 443 191 9 0 0 0 0 0 0 0 0 0 0 0 0 0 0 0 0
0 0 0 0 0 0 0 0 0 0 0 0 0 117 337 445 407 319 225 236 147 129 138 7 0 11 41 224 366 339 95 0 0 0 0 0 0 0 0 0 0 0 0 0 0 0 0 0 0
0 0 0 0 0 0 0 0 0 0 0 0 0 7 323 459 569 534 361 269 142 71 87 38 12 29 185 373 314 127 6 0 0 0 0 0 0 0 0 0 0 0 0 0 0 0 0 0 0
0 0 0 0 0 0 0 0 0 0 0 0 0 2 183 493 579 590 463 323 179 182 94 62 23 49 303 492 196 84 12 0 0 0 0 0 0 0 0 0 0 0 0 0 0 0 0 0 0
0 0 0 0 0 0 0 0 0 0 0 0 0 0 281 528 662 675 559 426 262 210 144 76 7 41 395 610 208 47 0 0 0 0 0 0 0 0 0 0 0 0 0 0 0 0 0 0 0
0 0 0 0 0 0 0 0 0 0 0 0 0 34 441 404 628 676 611 480 313 300 217 109 23 68 433 539 215 17 0 0 0 0 0 0 0 0 0 0 0 0 0 0 0 0 0 0 0
0 0 0 0 0 0 0 0 0 0 0 0 0 0 236 451 476 598 579 473 231 239 179 81 19 57 336 495 195 7 0 0 0 0 0 0 0 0 0 0 0 0 0 0 0 0 0 0 0
0 0 0 0 0 0 0 0 0 0 0 0 0 0 0 239 587 412 400 514 202 100 22 13 0 26 172 418 228 11 0 0 0 0 0 0 0 0 0 0 0 0 0 0 0 0 0 0 0
0 0 0 0 0 0 0 0 0 0 0 0 0 0 0 0 10 553 402 318 214 57 15 3 1 44 165 247 40 0 0 0 0 0 0 0 0 0 0 0 0 0 0 0 0 0 0 0 0
0 0 0 0 0 0 0 0 0 0 0 0 0 0 0 0 0 207 589 321 225 42 17 1 0 79 131 82 37 0 0 0 0 0 0 0 0 0 0 0 0 0 0 0 0 0 0 0 0
0 0 0 0 0 0 0 0 0 0 0 0 0 0 0 0 0 0 445 478 255 56 23 13 5 87 83 91 26 0 0 0 0 0 0 0 0 0 0 0 0 0 0 0 0 0 0 0 0
0 0 0 0 0 0 1 0 0 0 0 0 0 0 0 0 0 0 11 467 352 156 30 26 34 45 50 40 0 0 0 0 0 0 0 0 0 0 0 0 0 0 0 0 0 0 0 0 0
0 0 0 0 0 0 1 0 0 0 0 0 0 0 0 0 0 0 0 104 362 265 67 41 57 29 16 0 0 0 0 0 0 0 0 0 0 0 0 0 0 0 0 0 0 0 0 0 0
0 0 0 0 0 0 0 0 0 0 0 0 0 0 0 0 0 0 0 10 207 258 212 128 98 42 1 0 0 0 0 0 0 0 0 0 0 0 0 0 0 0 0 0 0 0 0 0 0
0 0 0 0 0 0 1 0 0 0 0 5 16 0 28 21 81 191 210 426 377 289 249 136 57 20 2 4 1 0 0 1 0 0 2 0 0 0 0 0 0 0 0 0 0 0 0 0 0
0 0 0 0 0 0 0 0 0 4 8 100 92 64 146 462 693 759 619 616 525 487 386 133 5 2 3 3 2 2 0 1 1 0 0 0 0 0 0 0 0 0 0 0 0 0 0 0 0
0 0 0 0 0 0 0 0 0 0 1 5 115 43 122 256 302 426 626 607 477 648 340 84 11 2 3 1 0 0 1 16 1 0 0 1 0 0 0 0 0 0 0 0 0 0 0 0 0
0 0 0 0 0 0 0 0 10 0 0 0 21 5 48 13 7 52 141 333 675 386 163 50 8 1 0 1 1 0 11 0 0 0 2 1 0 0 0 0 0 0 0 0 0 0 0 0 0
0 0 0 0 0 0 0 0 0 0 0 0 0 0 0 0 0 0 0 2 104 157 103 29 9 1 2 10 0 0 0 0 0 0 0 0 0 0 0 0 0 0 0 0 0 0 0 0 0
0 0 0 0 0 0 0 0 0 0 0 0 0 0 0 0 0 0 0 0 0 0 0 1 0 0 0 0 0 0 0 0 0 0 0 0 0 0 0 0 0 0 0 0 0 0 0 0 0
0 0 0 0 0 0 0 0 0 0 0 0 0 0 0 0 0 0 0 0 0 0 0 0 0 0 0 0 0 0 0 0 0 0 0 0 0 0 0 0 0 0 0 0 0 0 0 0 0

GFSSGP_con_mlcape_111.txt.gz
CAPE
66 10 1098 612 0 0 0 0 0 0 0 0 0 0 0 0 0 0 2 66 0 0 1404 1133 1292 1343 1254 1219 1108 918 822 717 592 215 5 3 1 0 0 135 1 11 5 88 5 1 0 3 12
16 65 277 172 0 0 0 0 0 0 0 0 0 0 0 0 70 90 55 57 0 682 1343 1090 1390 1298 1252 1135 1006 921 891 681 517 200 6 2 0 0 0 236 11 80 5 89 5 0 0 0 3
0 204 408 86 0 0 0 0 0 0 0 4 0 10 30 61 182 183 84 100 0 937 1004 1111 1375 1266 1168 1141 1076 924 746 556 74 0 3 1 0 0 0 224 102 34 0 112 4 1 0 0 0
0 272 251 50 0 3 0 0 0 0 0 22 14 3 58 46 277 243 318 159 12 632 977 1261 1104 1193 1176 1135 976 767 613 140 3 3 1 0 0 0 290 206 66 0 10 72 5 0 0 0 0
18 202 0 19 19 94 118 189 179 93 58 72 40 29 68 85 292 373 524 342 5 543 1266 1128 1167 1278 1170 1016 880 466 50 20 2 0 2 1 2 130 267 233 107 1 148 45 2 0 0 0 0
0 289 0 0 0 223 257 341 220 179 183 183 124 105 83 152 511 567 711 458 44 831 1081 901 1043 931 944 894 434 209 32 4 1 1 2 11 18 38 196 103 39 10 10 70 2 0 0 0 0
0 2 0 0 0 154 320 522 407 229 57 305 187 91 92 291 601 791 825 377 997 1054 978 878 972 917 755 374 231 87 4 1 0 7 14 135 136 49 9 4 10 5 0 19 0 0 0 0 0
0 54 0 0 0 52 216 296 526 20 39 186 217 177 194 299 648 771 696 683 1165 982 801 590 407 455 334 109 37 5 2 1 24 131 65 23 13 13 5 7 8 0 0 15 0 0 0 0 0
4 0 0 0 0 6 40 53 2 0 0 0 118 194 149 256 616 872 705 622 699 670 565 384 202 115 44 0 4 5 11 130 174 33 8 13 4 7 0 0 0 0 0 0 0 0 0 0 0
0 0 0 3 11 6 3 0 0 0 0 0 0 178 275 378 782 936 749 505 627 509 325 268 126 18 0 1 6 7 97 188 152 16 0 0 0 0 0 0 0 0 0 0 0 0 0 0 0
0 0 0 0 0 0 0 0 0 0 0 0 0 3 364 471 913 877 754 565 489 485 315 221 94 16 0 1 106 201 145 35 6 0 0 0 0 0 0 0 0 0 0 0 0 0 0 0 0
0 0 0 0 0 0 0 0 0 0 0 0 0 0 156 535 734 787 723 541 451 409 402 226 85 32 36 175 332 180 97 0 0 0 0 0 0 0 0 0 0 0 0 0 0 0 0 0 0
0 0 0 0 0 0 0 0 0 0 0 0 0 0 2 339 647 777 689 525 481 469 391 221 88 65 129 253 308 118 44 8 0 0 0 0 0 0 0 0 0 0 0 0 0 0 0 0 0
0 0 0 0 0 0 0 0 0 0 0 0 0 0 0 53 643 824 641 619 550 350 372 247 102 58 183 284 362 98 13 0 0 0 0 0 0 0 0 0 0 0 0 0 0 0 0 0 0
0 0 0 0 0 0 0 0 0 0 0 0 0 0 0 310 792 867 903 781 549 417 347 266 122 113 268 368 313 104 17 0 0 0 0 0 0 0 0 0 0 0 0 0 0 0 0 0 0
0 0 0 0 0 0 0 0 0 0 0 0 0 0 0 259 664 939 986 870 612 461 378 214 127 154 395 529 319 126 32 0 0 0 0 0 0 0 0 0 0 0 0 0 0 0 0 0 0
0 0 0 0 0 0 0 0 0 0 0 0 0 0 0 0 532 784 994 929 632 454 360 278 196 131 436 481 277 121 13 0 0 0 0 0 0 0 0 0 0 0 0 0 0 0 0 0 0
0 0 0 0 0 0 0 0 0 0 0 0 0 0 0 0 0 623 817 864 633 328 341 249 192 102 307 357 136 37 7 0 0 0 0 0 0 0 0 0 0 0 0 0 0 0 0 0 0
0 0 0 0 0 0 0 0 0 0 0 0 0 0 0 0 0 0 653 708 576 257 206 209 148 91 156 91 100 52 11 0 0 0 0 0 0 0 0 0 0 0 0 0 0 0 0 0 0
0 0 0 0 0 0 0 0 0 0 0 0 0 0 0 0 0 0 30 674 526 323 166 104 87 52 63 90 100 38 0 0 0 0 0 0 0 0 0 0 0 0 0 0 0 0 0 0 0
0 0 0 0 0 0 0 0 0 0 0 0 0 0 0 0 0 0 0 346 643 334 174 81 82 91 69 0 7 0 0 0 0 0 0 0 0 0 0 0 0 0 0 0 0 0 0 0 0
0 0 0 0 0 0 0 0 0 0 0 0 0 0 0 0 0 0 0 0 528 551 179 123 140 118 57 2 6 16 9 0 0 0 0 0 0 0 0 0 0 0 0 0 0 0 0 0 0
0 0 0 0 0 0 0 0 0 0 0 0 0 2 1 0 0 0 0 0 194 590 344 217 166 149 43 22 30 3 1 2 4 1 1 0 0 0 0 0 0 0 0 0 0 0 0 0 0
0 0 0 0 0 0 0 0 0 1 2 1 0 6 39 130 241 370 158 129 363 504 310 195 150 100 2 1 1 0 2 1 2 1 0 0 0 0 0 0 0 0 0 0 0 0 0 0 0
0 0 0 0 0 0 0 0 0 1 0 1 52 32 10 215 488 805 770 684 629 551 387 212 184 29 2 1 2 2 1 0 0 0 2 0 2 1 0 0 0 0 0 0 0 0 0 0 0
0 0 0 0 0 0 0 0 0 1 0 0 21 3 0 0 65 232 682 744 753 564 338 95 34 33 11 3 3 3 0 5 0 1 2 3 3 1 0 0 0 0 0 0 0 0 0 0 0
0 0 0 0 0 0 0 0 0 0 0 0 0 0 0 0 1 0 124 484 574 376 177 60 28 7 0 0 0 0 3 0 0 0 1 2 1 0 0 0 0 0 0 0 0 0 0 0 0
0 0 0 0 0 0 0 0 0 0 0 0 0 0 0 0 0 0 0 0 59 96 48 14 4 0 0 0 0 0 0 2 0 0 0 2 1 0 0 0 0 0 0 0 0 0 0 0 0
0 0 0 0 0 0 0 0 0 0 0 0 0 0 0 0 0 0 0 1 2 1 0 0 0 0 0 0 0 0 0 0 0 0 0 0 0 0 0 0 0 0 0 0 0 0 0 0 0
0 0 0 0 0 0 0 0 0 0 0 0 0 0 0 0 0 0 0 0 0 0 0 0 0 0 0 0 0 0 0 0 0 0 0 0 0 0 0 0 0 0 0 0 0 0 0 0 0

GFSSGP_con_mlcape_114.txt.gz
CAPE
129 110 1663 1607 56 0 0 0 0 0 0 0 0 0 0 0 0 11 272 170 6 0 969 1454 1446 1386 1325 1433 1241 1074 921 753 697 296 76 5 0 221 4 0 36 120 72 3 0 0 7 6 6
158 274 1110 589 0 0 0 0 0 0 0 0 0 0 0 0 275 337 311 303 85 0 696 1286 1462 1296 1260 1314 1097 1067 887 733 430 86 9 1 0 0 258 7 88 30 78 2 0 0 0 5 8
12 552 567 65 0 0 0 0 0 0 0 0 0 49 184 432 741 655 580 255 0 86 787 689 1368 1255 1332 1200 1203 1032 835 771 334 25 0 0 0 0 383 149 74 96 69 6 1 0 0 0 0
126 380 396 105 0 58 0 0 0 0 0 12 42 57 368 467 815 738 584 44 61 915 983 1347 1324 1282 1184 1282 1142 1041 742 249 70 0 0 0 0 0 306 135 1 178 62 5 0 0 0 0 0
215 148 0 26 0 33 239 243 217 140 64 85 156 77 382 646 876 820 466 2 338 456 400 1163 1362 1356 1356 1135 1105 927 559 109 28 0 0 0 0 430 276 60 4 143 26 5 1 0 0 0 0
0 6 0 0 0 13 295 438 448 348 268 257 282 307 550 780 1029 837 536 150 246 192 163 772 1030 1204 1199 1262 1043 628 254 61 2 0 0 0 332 349 200 47 54 104 25 2 0 0 0 0 0
0 0 0 0 0 0 48 432 439 397 323 434 540 352 625 913 1060 804 658 324 148 306 827 979 1069 974 1027 895 839 354 70 14 1 0 0 22 292 226 150 30 1 82 6 0 0 0 0 0 0
0 0 0 0 0 0 0 174 770 423 273 117 556 530 656 927 1119 1016 795 399 91 469 771 900 1001 844 815 606 580 218 61 6 6 2 346 243 145 39 13 13 3 8 1 0 0 0 0 0 0
155 0 0 0 0 0 45 107 133 14 53 0 26 311 503 1056 1261 1141 859 637 563 834 921 918 992 749 563 275 192 69 13 8 45 65 96 14 47 8 12 14 1 9 0 0 0 0 0 0 0
0 0 0 0 0 0 0 5 1 0 27 6 0 210 579 1206 1424 1320 943 657 1003 910 870 815 688 383 250 7 1 0 0 73 193 54 19 16 10 21 3 1 0 9 0 0 0 0 0 0 0
0 0 0 0 0 0 0 0 0 0 0 0 0 0 647 1088 1298 1300 1014 684 865 892 894 742 577 305 4 0 0 0 3 372 184 83 20 3 4 0 0 0 0 6 0 0 0 0 0 0 0
0 0 0 0 0 0 0 0 0 0 0 0 0 0 0 617 1181 1390 1194 1016 814 819 815 672 542 250 0 0 0 34 541 304 129 30 5 0 0 0 0 0 0 0 0 0 0 0 0 0 0
0 0 0 0 0 0 0 0 0 0 0 0 0 0 0 106 484 1536 1525 1113 789 711 718 746 636 250 0 0 11 596 144 150 69 53 1 0 0 0 0 0 0 0 0 0 0 0 0 0 0
0 0 0 0 0 0 0 0 0 0 0 0 0 0 0 0 120 781 1369 1149 822 843 696 895 594 236 0 0 357 395 209 101 142 7 0 0 0 0 0 0 0 0 0 0 0 0 0 0 0
0 0 0 0 0 0 0 0 0 0 0 0 0 0 0 0 0 103 959 1260 979 840 766 778 466 227 0 1 444 407 120 63 53 0 0 0 0 0 0 0 0 0 0 0 0 0 0 0 0
0 0 0 0 0 0 0 0 0 0 0 0 0 0 0 0 142 526 903 1202 1161 953 803 569 418 179 2 49 537 455 119 121 66 0 0 0 0 0 0 0 0 0 0 0 0 0 0 0 0
0 0 0 0 0 0 0 0 0 0 0 0 0 0 0 0 0 638 1197 1375 1271 1085 614 472 601 240 20 174 547 476 289 225 28 0 0 0 0 0 0 0 0 0 0 0 0 0 0 0 0
0 0 0 0 0 0 0 0 1 1 0 0 0 0 0 0 0 4 1047 1400 1369 1331 1038 920 800 362 95 446 398 323 372 167 1 0 0 0 0 0 0 0 0 0 0 0 0 0 0 0 0
0 0 0 0 0 0 0 0 0 0 0 0 0 0 0 0 0 0 1 1021 1336 1193 1009 949 803 471 214 257 101 110 105 81 10 0 0 0 0 0 0 0 0 0 0 0 0 0 0 0 0
0 0 0 0 0 0 0 0 0 0 0 0 0 0 0 0 0 0 0 444 1187 1295 1151 1009 803 606 325 214 117 120 2 12 10 1 0 0 0 0 0 0 0 0 0 0 0 0 0 0 0
0 0 0 0 0 0 0 0 0 0 0 0 0 0 0 0 0 0 0 24 732 1165 1120 1136 976 740 541 228 21 9 0 1 0 0 0 0 0 0 0 0 0 0 0 0 0 0 0 0 0
0 0 0 0 0 0 0 0 0 0 0 1 3 0 0 0 0 0 2 0 510 961 1065 1055 877 742 605 212 44 13 8 0 1 0 0 0 0 0 0 0 0 0 0 0 0 0 0 0 0
0 0 0 0 0 0 0 0 0 0 0 0 0 1 1 1 105 60 52 7 43 843 979 796 422 336 186 18 0 1 4 0 4 0 0 0 0 0 0 0 0 0 0 0 0 0 0 0 0
0 0 0 0 0 0 0 2 3 2 3 0 0 3 2 74 477 691 693 292 86 858 855 764 437 287 124 32 5 0 0 0 2 7 6 3 3 1 0 0 0 0 0 0 0 0 0 0 0
0 0 0 0 0 0 0 4 1 0 0 1 18 5 5 23 117 820 1120 953 879 818 689 605 415 52 2 0 1 1 0 0 0 3 2 0 1 1 1 0 0 0 0 0 0 0 0 0 0
0 0 0 0 0 0 0 0 4 0 0 43 5 4 5 4 5 150 852 1081 980 814 630 307 44 6 2 1 3 0 0 0 0 4 2 2 3 3 1 2 0 0 0 0 0 0 0 0 0
0 0 0 0 0 0 0 0 0 0 0 2 0 0 3 4 6 8 308 682 542 440 211 79 19 3 3 3 0 0 0 2 1 2 1 1 3 1 1 0 0 0 0 0 0 0 0 0 0
0 0 0 0 0 0 0 0 0 0 0 0 0 0 0 3 5 3 2 34 60 76 76 9 11 5 3 3 12 16 9 8 1 2 2 2 3 2 0 0 0 0 0 0 0 0 0 0 0
0 0 0 0 0 0 0 0 0 0 0 0 0 0 0 0 1 2 2 1 1 0 0 0 0 0 0 0 0 0 0 0 0 0 0 0 0 0 0 0 0 0 0 0 0 0 0 0 0
0 0 0 0 0 0 0 0 0 0 0 0 0 0 0 0 0 0 0 0 0 3 0 0 0 0 0 0 0 0 0 0 0 0 0 0 0 0 0 0 0 0 0 0 0 0 0 0 0

GFSSGP_con_mlcape_117.txt.gz
CAPE
233 176 1008 1669 282 0 0 0 0 0 0 2 1 0 0 2 50 421 518 213 0 0 716 1444 1503 1466 1382 1212 1011 662 1033 921 661 225 61 2 366 11 0 102 287 110 5 2 4 4 4 5 3
217 195 1039 701 81 0 0 0 0 0 0 0 0 10 10 9 324 811 522 336 0 65 767 1278 1593 1539 1393 1323 1218 1091 986 848 562 212 40 0 145 114 25 149 242 58 6 3 1 2 6 8 8
95 268 604 255 69 0 0 45 5 1 0 0 26 96 225 655 953 928 875 420 0 408 870 1395 1605 1475 1351 1273 1252 1066 932 789 328 119 8 0 0 370 152 119 247 86 5 3 0 0 0 1 6
0 94 257 98 56 36 56 116 7 0 1 3 44 100 428 752 1025 1158 921 429 0 518 660 1466 1485 1376 1369 1393 1223 1158 900 740 192 39 1 0 0 356 200 113 214 57 3 0 0 0 0 0 0
0 0 0 0 0 0 30 194 162 138 53 62 123 160 446 1186 1246 1146 725 69 172 845 924 1448 1295 1497 1504 1230 1182 1061 825 362 118 2 0 0 1 425 172 24 251 76 5 2 0 0 0 0 0
0 0 0 0 0 0 18 265 155 246 246 225 277 260 804 1329 1319 1052 447 225 891 839 1132 1259 1333 1397 1326 1368 1219 1021 543 218 28 1 0 1 507 262 157 162 135 35 3 0 0 0 0 0 0
0 0 0 0 0 0 2 167 79 163 188 359 521 452 1043 1299 1298 1040 436 428 659 467 365 800 972 926 1308 1186 1040 791 392 96 18 0 0 362 403 221 149 163 113 42 0 0 0 0 0 0 0
0 0 0 0 0 0 0 2 313 475 416 295 513 540 543 1351 1182 1077 808 479 454 365 348 705 974 922 842 824 657 530 211 29 8 6 52 402 192 186 79 1 95 11 0 0 0 0 0 0 0
0 0 0 0 0 2 1 58 121 137 234 166 159 523 384 628 1427 1085 955 562 352 413 711 931 960 679 609 532 566 387 98 0 22 87 101 28 73 32 21 12 54 3 0 0 0 0 0 0 0
0 0 0 0 0 0 0 1 59 99 28 8 8 181 453 1345 1677 1270 1069 712 310 483 549 949 1009 709 412 389 437 55 6 0 11 81 19 102 7 12 23 0 30 0 0 0 0 0 0 0 0
0 0 0 0 0 0 0 0 0 0 0 0 12 126 431 741 1317 1498 1233 988 563 825 848 1065 1223 974 425 107 46 0 0 1 131 93 20 12 13 0 0 0 16 0 0 0 0 0 0 0 0
0 0 0 0 0 0 0 0 0 0 0 0 0 0 0 105 930 1247 1460 1194 703 273 457 1198 902 902 197 15 1 0 0 283 384 129 18 3 3 0 1 0 7 1 0 0 0 0 0 0 0
0 0 0 0 0 0 0 0 0 0 0 0 0 0 0 0 414 789 1135 1300 948 874 1050 1137 816 385 88 5 0 1 416 523 266 90 4 3 0 0 0 0 0 0 0 0 0 0 0 0 0
0 0 0 0 0 0 0 0 0 0 0 0 0 0 0 0 2 177 803 1296 1159 800 820 913 622 589 64 1 0 162 568 363 169 41 2 0 0 0 0 0 0 0 0 0 0 0 0 0 0
0 0 0 0 0 0 0 0 0 0 0 0 0 0 0 0 0 0 163 910 1230 1064 848 875 693 311 99 0 10 481 548 372 273 82 0 0 0 0 0 0 0 0 0 0 0 0 0 0 0
0 0 0 0 0 0 0 0 0 0 0 0 0 0 0 0 0 0 0 289 799 1088 886 727 946 259 144 3 418 527 525 274 245 59 0 0 0 0 0 0 0 0 0 0 0 0 0 0 0
2 0 0 0 0 0 0 0 1 5 6 2 2 0 0 0 0 0 28 135 610 1192 852 641 747 276 189 11 453 444 414 260 217 7 0 0 0 0 0 0 0 0 0 0 0 0 0 0 0
0 0 0 0 0 0 0 0 1 1 0 0 0 0 0 0 0 0 18 525 751 1229 593 492 525 386 257 47 425 345 413 231 228 0 0 0 0 0 0 0 0 0 0 0 0 0 0 0 0
0 0 0 0 0 0 0 0 0 6 8 9 2 13 0 0 0 0 0 563 1167 898 378 0 392 508 244 229 318 409 314 238 68 0 0 0 0 0 0 0 0 0 0 0 0 0 0 0 0
0 0 0 0 0 0 0 1 2 7 12 12 13 11 22 0 0 0 0 0 467 1148 632 486 478 588 422 478 338 192 180 172 11 2 0 0 0 0 0 0 0 0 0 0 0 0 0 0 0
0 0 0 0 0 0 0 0 2 0 5 11 3 7 4 18 0 0 0 0 159 940 1035 683 221 862 476 617 168 7 0 0 0 0 0 0 0 0 0 0 0 0 0 0 0 0 0 0 0
0 0 0 0 0 0 0 2 0 0 0 3 4 14 18 12 9 5 0 6 60 476 977 873 744 749 631 362 4 2 4 0 1 0 0 0 0 0 0 0 0 0 0 0 0 0 0 0 0
0 0 0 0 0 0 0 1 0 0 0 0 0 6 2 0 43 303 25 8 1 235 564 1088 419 104 389 125 20 54 23 0 0 0 0 0 0 0 0 0 0 0 0 0 0 0 0 0 0
0 0 0 0 0 2 0 1 8 0 0 0 25 5 4 2 2 520 340 96 56 411 845 683 76 47 82 0 5 0 0 0 0 3 3 3 1 0 0 0 0 0 0 0 0 0 0 0 0
0 0 0 4 0 0 0 7 6 1 0 17 14 6 4 3 2 293 614 427 337 1103 991 557 334 194 146 18 0 0 0 0 0 1 4 5 3 2 1 0 0 0 0 0 0 0 0 0 0
0 0 0 0 0 0 0 0 0 0 2 6 1 3 4 6 3 255 1014 1041 876 935 612 302 247 75 24 0 1 0 0 0 2 3 2 3 2 2 2 2 0 0 0 0 0 0 0 0 0
0 0 0 0 0 3 0 0 21 15 1 0 0 0 4 6 5 1 213 614 580 473 288 90 25 1 2 2 1 2 0 0 1 1 1 3 0 1 2 1 0 0 0 0 0 0 0 0 0
0 0 0 1 0 0 1 0 0 0 0 0 0 0 0 3 5 3 2 2 0 59 115 9 2 2 1 4 9 5 11 6 1 2 2 2 1 1 1 0 0 0 0 0 0 0 0 0 0
0 0 0 0 0 0 0 0 0 0 0 0 0 0 0 2 2 4 3 2 3 2 1 2 0 0 0 0 0 0 0 0 0 0 0 1 0 2 1 0 0 0 0 0 0 0 0 0 0
0 0 0 0 0 0 0 0 0 0 0 0 0 0 0 0 0 0 0 1 0 1 0 1 0 0 0 0 0 0 0 0 0 0 0 0 0 0 0 0 0 0 0 0 0 0 0 0 0

GFSSGP_con_mlcape_123.txt.gz
CAPE
0 47 106 334 44 128 0 0 17 0 0 0 0 1 9 324 211 55 402 138 397 829 1595 1266 1897 1583 1563 1460 1338 1252 984 800 698 188 2 0 22 288 127 2 2 2 4 8 9 8 11 46 146
0 58 297 656 16 0 0 0 0 0 0 3 4 0 0 351 379 216 495 130 198 1008 1747 1405 1914 1625 1512 1258 1348 1170 878 512 218 188 88 1 16 356 107 5 2 2 3 4 8 7 10 63 72
0 1 203 190 5 0 0 0 0 0 2 0 0 11 474 792 508 220 147 110 366 1187 1648 1796 1840 1493 1411 1313 1147 1097 873 478 87 6 303 10 129 277 91 6 2 0 1 1 2 6 11 41 28
0 0 33 17 0 36 11 28 0 0 2 15 1 52 798 951 820 606 0 284 1122 1196 1556 2025 1744 1581 1429 1083 1175 1055 910 525 172 0 9 189 274 203 172 6 3 1 0 0 0 3 5 0 7
0 0 0 0 0 0 0 0 0 1 31 22 20 59 931 1223 945 332 0 659 1267 1473 1735 1923 1810 1619 1337 1249 1243 1033 877 471 135 0 0 103 398 196 156 6 3 1 0 0 0 0 0 1 0
0 0 0 0 0 0 0 0 0 31 22 66 30 141 900 866 651 233 0 551 1079 1630 1803 1684 1845 1680 1497 1416 1205 1110 793 357 73 0 0 28 351 173 130 9 5 1 0 0 0 0 0 0 16
0 0 0 0 0 0 0 0 0 52 110 38 0 0 47 773 579 483 52 1211 1557 1806 1707 1681 1705 1591 1446 1352 1140 1025 706 265 27 0 0 467 303 150 132 7 1 0 0 0 0 0 0 0 14
0 0 0 0 0 0 0 0 0 0 210 419 374 520 241 432 623 306 4 397 1429 1669 1462 1433 1638 1531 1415 1206 1060 877 557 191 0 0 410 448 171 38 86 4 1 0 0 0 0 0 0 0 0
0 0 0 0 0 0 0 0 0 0 0 13 40 82 432 103 15 20 0 144 1031 1218 1424 1223 1214 1190 1236 1095 884 653 383 64 3 234 366 106 0 18 0 0 0 0 0 0 0 0 0 0 0
0 0 0 0 0 0 0 0 0 0 0 0 0 793 522 187 0 0 0 56 76 859 1027 1021 939 974 940 813 716 448 235 1 35 216 7 0 0 0 0 0 0 0 0 0 0 0 0 0 0
0 0 0 0 0 0 0 0 0 0 0 0 0 0 305 314 209 2 16 0 12 235 815 832 705 801 699 605 408 174 12 0 12 50 1 0 0 0 0 0 0 0 0 0 0 0 0 0 0
0 0 0 0 0 0 0 0 0 0 0 0 0 0 0 55 389 625 373 274 10 28 448 673 842 825 635 382 265 62 0 0 12 3 7 0 0 0 0 0 0 0 0 0 0 0 0 0 0
0 0 0 0 0 0 0 0 0 0 0 0 0 0 0 0 0 9 830 621 157 341 560 544 580 561 573 459 305 36 0 0 8 1 0 0 0 0 0 0 0 0 0 0 0 0 0 0 0
0 0 0 0 0 0 0 0 0 0 0 0 0 0 0 0 0 0 0 805 720 656 391 190 637 173 458 395 70 2 0 0 21 33 1 0 0 0 0 0 0 0 0 0 0 0 0 0 0
0 0 0 0 0 0 0 0 0 0 0 0 0 0 0 0 0 0 0 786 899 697 305 8 386 424 419 136 10 46 1 0 12 114 10 0 0 0 0 0 0 0 0 0 0 0 0 0 0
0 0 0 0 0 0 0 0 0 0 0 0 0 0 0 0 0 0 0 0 448 849 657 381 474 515 253 31 283 163 96 39 74 79 2 0 0 0 0 0 0 0 0 0 0 0 0 0 0
0 0 0 0 0 0 0 0 0 0 0 0 0 0 0 0 0 0 0 0 6 993 971 749 745 414 428 69 427 366 238 189 171 57 0 0 0 0 0 0 0 0 0 0 0 0 0 0 0
0 0 0 0 0 0 0 0 0 0 0 0 0 0 0 0 0 0 0 0 1 394 1023 847 628 63 153 288 307 320 213 242 187 32 0 0 0 0 0 0 0 0 0 0 0 0 0 0 0
0 0 0 0 0 0 0 0 0 0 0 0 0 0 0 0 0 0 0 0 588 930 978 956 579 126 107 213 226 206 244 226 200 7 0 0 0 0 0 0 0 0 0 0 0 0 0 0 0
0 0 0 0 0 0 0 0 0 0 0 0 0 0 0 0 0 0 0 0 0 802 944 776 690 439 109 47 1 154 170 189 101 0 0 0 0 0 0 0 0 0 0 0 0 0 0 0 0
0 0 0 0 0 0 0 0 0 0 0 0 0 0 0 0 0 0 0 0 1 388 871 768 466 222 142 0 8 0 48 90 16 0 0 0 0 0 0 0 0 0 0 0 0 0 0 0 0
0 0 0 0 0 0 0 0 0 0 0 0 0 0 0 0 0 0 0 2 3 72 761 592 316 192 11 0 6 0 49 30 0 0 0 0 0 0 0 0 0 0 0 0 0 0 0 0 0
0 0 0 0 0 0 0 0 0 0 0 0 0 1 1 0 0 0 0 3 1 35 692 482 195 115 0 0 0 16 62 0 0 0 0 0 0 0 0 0 0 0 0 0 0 0 0 0 0
0 0 0 0 0 0 0 0 0 0 0 0 0 1 0 0 1 0 1 47 205 763 780 524 216 36 0 0 0 0 0 1 0 0 0 0 0 0 0 0 0 0 0 0 0 0 0 0 0
0 0 0 0 0 0 0 0 0 0 0 0 3 2 1 1 0 0 160 317 515 443 609 409 358 78 0 0 0 0 0 15 5 0 2 0 0 0 0 0 0 0 0 0 0 0 0 0 0
0 0 0 0 0 0 0 0 0 0 0 0 0 1 0 0 1 0 45 249 511 526 408 184 100 4 0 0 0 0 0 0 0 1 1 1 0 0 0 0 0 0 0 0 0 0 0 0 0
0 0 0 0 0 0 0 0 0 0 0 0 0 0 0 0 1 4 11 62 303 182 154 89 31 1 0 1 1 0 0 0 0 0 0 0 1 0 0 0 0 0 0 0 0 0 0 0 0
0 0 0 0 0 0 0 0 0 0 0 0 0 0 2 1 0 2 3 3 2 2 1 1 2 1 0 0 0 1 2 2 0 0 0 2 1 1 2 1 0 0 0 0 0 0 0 0 0
0 0 0 0 0 0 0 0 0 0 0 0 0 0 1 2 2 2 1 2 2 2 2 1 0 0 0 0 0 0 0 0 0 0 0 0 0 0 0 0 0 0 0 0 0 0 0 0 0
0 0 0 0 0 0 0 0 0 0 0 0 0 0 0 0 0 2 0 0 0 0 0 0 0 0 0 0 0 0 0 0 0 0 0 0 0 0 0 0 0 0 0 0 0 0 0 0 0

GFSSGP_con_mlcape_126.txt.gz
CAPE
0 0 11 354 2 10 0 0 0 0 0 0 0 0 14 122 141 18 322 429 373 571 867 1817 1754 1642 1529 1640 1346 1135 959 599 33 0 3 58 292 18 5 4 4 6 11 13 27 108 139 225 219
0 9 211 498 0 0 0 0 0 0 0 0 0 2 6 60 270 202 394 512 488 1381 1188 2002 1891 1811 1660 1449 1250 1098 987 677 121 1 2 355 289 13 9 4 3 4 6 10 18 64 69 179 188
0 0 150 21 0 0 0 0 0 0 0 0 0 70 766 667 666 264 386 758 1018 1528 1271 1950 1845 1899 1682 1502 1408 1073 838 557 271 51 3 311 364 27 9 4 2 3 5 8 12 76 24 147 108
0 0 0 0 0 0 0 0 0 0 0 0 0 20 870 639 371 436 418 775 1307 1602 1329 2147 1978 1868 1702 1491 1327 1049 649 251 316 209 4 138 332 59 8 2 0 0 1 7 12 7 16 38 44
0 0 0 0 0 0 0 0 0 0 0 0 4 16 897 789 61 72 580 803 1352 1714 1466 2272 1908 1699 1636 1459 1314 1043 722 260 75 254 107 407 252 116 5 3 0 0 0 3 8 1 0 29 8
0 0 0 0 0 0 0 0 0 0 0 0 0 5 728 613 308 11 249 1375 1491 1649 1709 2070 1647 1612 1472 1258 1164 1008 779 399 3 2 291 494 235 126 3 3 0 0 0 0 0 0 9 27 2
0 0 0 0 0 0 0 0 0 0 20 68 12 2 17 336 619 48 26 791 1523 1391 1674 1827 1716 1530 1384 1299 1157 941 769 334 8 0 81 517 222 150 7 2 0 0 0 0 0 3 1 9 0
0 0 0 0 0 0 0 0 0 0 18 56 258 336 128 445 573 406 100 190 439 959 1028 1483 1615 1470 1103 1196 1099 814 690 330 0 0 247 331 214 127 2 3 0 0 0 0 0 1 0 0 0
0 0 0 0 0 0 0 0 0 0 0 0 73 290 450 566 377 419 133 244 296 14 30 866 1015 1226 1170 1003 914 752 615 179 0 35 473 157 96 6 1 0 0 0 0 0 0 0 0 0 0
0 0 0 0 0 0 0 0 0 0 0 0 0 5 588 408 82 89 114 39 223 92 0 0 697 888 975 1037 700 530 369 6 21 478 101 2 1 0 0 0 0 0 0 0 0 0 0 0 0
0 0 0 0 0 0 0 0 0 0 0 0 0 0 101 287 131 15 98 64 8 0 0 0 56 789 736 837 599 361 68 0 135 57 0 0 0 0 0 0 0 0 0 0 0 0 0 0 0
0 0 0 0 0 0 0 0 0 0 0 0 0 0 0 32 28 23 20 0 0 0 0 0 230 724 527 527 491 258 9 0 101 0 0 0 0 0 0 0 0 0 0 0 0 0 0 0 0
0 0 0 0 0 0 0 0 0 0 0 0 0 0 0 0 0 128 219 37 0 0 0 4 61 180 488 425 368 199 8 0 62 0 0 0 0 0 0 0 0 0 0 0 0 0 0 0 0
0 0 0 0 0 0 0 0 0 0 0 0 0 0 0 0 0 0 0 129 188 8 137 96 1 0 368 412 370 200 27 1 103 51 0 0 0 0 0 0 0 0 0 0 0 0 0 0 0
0 0 0 0 0 0 0 0 0 0 0 0 0 0 0 0 0 0 0 0 471 227 426 380 295 213 236 78 169 87 4 20 174 98 0 0 0 0 0 0 0 0 0 0 0 0 0 0 0
0 0 0 0 0 0 0 0 0 0 0 0 0 0 0 0 0 0 0 0 0 569 490 436 86 135 174 93 105 79 34 114 267 170 1 0 0 0 0 0 0 0 0 0 0 0 0 0 0
0 0 0 0 0 0 0 0 0 0 0 0 0 0 0 0 0 0 0 0 0 289 593 472 373 322 207 122 142 142 134 73 184 229 0 0 0 0 0 0 0 0 0 0 0 0 0 0 0
0 0 0 0 0 0 0 0 0 0 0 0 0 0 0 0 0 0 0 0 0 211 552 492 237 384 285 207 134 224 136 41 88 48 0 0 0 0 0 0 0 0 0 0 0 0 0 0 0
0 0 0 0 0 0 0 0 0 0 0 0 0 0 0 0 0 0 0 0 0 266 394 403 380 377 316 269 202 181 96 57 39 0 0 0 0 0 0 0 0 0 0 0 0 0 0 0 0
0 0 0 0 0 0 0 0 0 0 0 0 0 0 0 0 0 0 0 0 0 85 588 308 268 216 169 131 94 137 117 80 0 0 0 0 0 0 0 0 0 0 0 0 0 0 0 0 0
0 0 0 0 0 0 0 0 0 0 0 0 0 0 0 0 0 0 0 0 1 4 383 353 299 255 158 85 98 70 53 1 0 0 0 0 0 0 0 0 0 0 0 0 0 0 0 0 0
0 0 0 0 0 0 0 0 0 0 0 0 0 0 0 0 0 0 0 0 1 4 407 293 272 228 188 84 90 34 28 0 0 0 0 0 0 0 0 0 0 0 0 0 0 0 0 0 0
0 0 0 0 0 0 0 0 0 0 0 0 0 0 0 0 1 0 0 0 3 30 416 335 247 128 0 0 2 0 0 0 0 0 0 0 0 0 0 0 0 0 0 0 0 0 0 0 0
0 0 0 0 0 0 0 0 0 0 0 0 0 0 0 0 1 1 21 6 231 386 332 311 163 0 0 0 0 0 0 0 0 0 0 0 0 0 0 0 0 0 0 0 0 0 0 0 0
0 0 0 0 0 0 0 0 0 0 0 0 0 0 0 1 0 0 68 171 404 366 333 149 76 0 0 0 0 1 0 0 0 0 0 0 0 0 0 0 0 0 0 0 0 0 0 0 0
0 0 0 0 0 0 0 0 0 0 0 0 0 0 0 0 0 0 19 151 274 229 190 89 26 1 1 0 0 0 0 0 1 1 1 0 0 0 0 0 0 0 0 0 0 0 0 0 0
0 0 0 0 0 0 0 0 0 0 0 0 0 0 0 0 0 0 2 4 7 48 27 0 1 4 0 0 0 0 0 0 0 1 1 1 1 0 0 0 0 0 0 0 0 0 0 0 0
0 0 0 0 0 0 0 0 0 0 0 0 0 0 0 1 1 2 3 2 2 3 2 1 1 1 1 2 1 1 1 1 0 0 0 0 0 0 0 0 0 0 0 0 0 0 0 0 0
0 0 0 0 0 0 0 0 0 0 0 0 0 0 0 0 0 1 1 3 3 2 1 1 0 0 0 0 0 0 0 0 0 0 0 0 0 1 1 0 0 0 0 0 0 0 0 0 0
0 0 0 0 0 0 0 0 0 0 0 0 0 0 1 1 0 0 0 0 0 0 0 0 0 0 0 0 0 0 0 0 0 0 0 0 0 0 0 0 0 0 0 0 0 0 0 0 0

GFSSGP_con_mlcape_129.txt.gz
CAPE
0 0 0 327 0 0 0 0 0 0 0 0 0 0 3 50 68 4 325 578 216 29 1191 1775 2059 1767 1470 1599 1450 1069 433 22 16 95 650 453 51 7 2 5 6 7 13 88 132 304 313 351 303
0 26 188 275 0 0 0 0 0 0 0 0 0 59 0 214 502 395 682 567 322 162 1252 1926 2090 1811 1500 1593 1319 1129 555 64 7 2 294 283 19 5 5 6 7 7 20 80 92 342 259 205 140
0 0 86 0 0 0 0 0 0 0 0 0 0 572 924 935 531 632 363 735 679 439 1318 2026 1882 1808 1624 1507 1208 1157 753 140 21 9 483 278 28 3 6 6 8 7 11 68 38 216 124 89 93
0 0 0 0 0 0 0 0 0 0 0 0 0 19 943 479 402 287 851 959 1312 955 1424 2246 1826 1805 1657 1367 1267 1264 895 252 88 45 635 364 33 2 5 4 6 7 13 22 25 38 41 48 59
0 0 0 0 0 0 0 0 0 0 0 0 0 94 979 490 207 681 1231 1555 1493 1413 1380 2090 1569 1674 1649 1481 1353 1263 957 515 192 89 461 379 79 7 4 1 2 6 10 9 18 34 28 39 49
0 0 0 0 0 0 0 0 0 0 0 0 0 0 952 415 248 600 1226 1649 1865 1627 1238 2001 1563 1566 1486 1515 1405 1168 742 639 486 150 446 396 170 6 4 0 0 4 14 20 16 34 23 6 6
0 0 0 0 0 0 0 0 0 0 0 0 0 175 41 602 172 486 1167 1376 1741 1886 1176 1890 1412 1246 1300 1337 1343 1101 811 435 562 384 655 440 179 20 5 1 0 0 18 16 27 43 28 7 0
0 0 0 0 0 0 0 0 0 0 0 0 19 0 16 578 554 444 1089 1331 1197 1224 1013 596 258 902 919 995 1287 1104 831 418 158 358 662 325 149 38 5 0 0 0 20 24 6 29 14 3 0
0 0 0 0 0 0 0 0 0 0 0 0 0 0 394 773 676 558 575 1010 832 695 363 20 0 0 324 704 920 1060 841 522 108 140 530 243 124 10 1 0 0 0 10 31 2 10 3 0 0
0 0 0 0 0 0 0 0 0 0 0 0 0 0 88 486 333 572 526 345 384 572 257 66 0 0 0 483 622 599 606 347 38 345 347 199 11 0 0 0 0 0 1 29 1 7 0 0 0
0 0 0 0 0 0 0 0 0 0 0 0 0 0 0 174 241 140 218 356 445 387 118 29 53 0 0 13 407 433 281 193 205 337 206 84 0 0 0 0 0 0 0 10 0 0 0 0 0
0 0 0 0 0 0 0 0 0 0 0 0 0 0 0 0 0 84 108 202 152 14 44 0 9 0 0 4 291 297 278 204 210 256 149 30 0 0 0 0 0 0 0 0 0 0 0 0 0
0 0 0 0 0 0 0 0 0 0 0 0 0 0 0 0 0 0 0 42 39 3 0 0 0 2 19 119 190 239 244 149 249 139 82 14 0 0 0 0 0 0 0 0 0 0 0 0 0
0 0 0 0 0 0 0 0 0 0 0 0 0 0 0 0 0 0 0 0 3 13 0 1 0 65 1 0 107 192 215 189 284 113 70 1 0 0 0 0 0 0 0 0 0 0 0 0 0
0 0 0 0 0 0 0 0 0 0 0 0 0 0 0 0 0 0 0 0 0 1 1 7 0 58 0 19 5 54 98 250 289 129 42 0 0 0 0 0 0 0 0 0 0 0 0 0 0
0 0 0 0 0 0 0 0 0 0 0 0 0 0 0 0 0 0 0 0 0 0 166 81 127 24 0 3 0 3 6 129 298 170 15 0 0 0 0 0 0 0 0 0 0 0 0 0 0
0 0 0 0 0 0 0 0 0 0 0 0 0 0 0 0 0 0 0 0 0 0 339 330 145 57 10 0 6 1 19 141 361 307 1 0 0 0 0 0 0 0 0 0 0 0 0 0 0
0 0 0 0 0 0 0 0 0 0 0 0 0 0 0 0 0 0 0 0 0 17 458 445 356 337 174 107 24 3 34 125 206 231 0 0 0 0 0 0 0 0 0 0 0 0 0 0 0
0 0 0 0 0 0 0 0 0 0 0 0 0 0 0 0 0 0 0 0 0 272 513 485 412 476 323 162 86 169 127 129 53 67 0 0 0 0 0 0 0 0 0 0 0 0 0 0 0
0 0 0 0 0 0 0 0 0 0 0 0 0 0 0 0 0 0 0 0 0 109 520 502 372 300 324 289 130 114 146 84 7 0 0 0 0 0 0 0 0 0 0 0 0 0 0 0 0
0 0 0 0 0 0 0 0 0 0 0 0 0 0 1 0 0 0 0 0 0 106 456 440 346 321 315 269 193 60 4 1 1 2 0 0 0 0 0 0 0 0 0 0 0 0 0 0 0
0 0 0 0 0 0 0 0 0 0 0 0 0 0 0 0 1 0 0 0 0 1 447 368 320 236 212 159 142 136 54 0 0 0 0 0 0 0 0 0 0 0 0 0 0 0 0 0 0
0 0 0 0 0 0 0 0 0 0 0 0 0 0 0 0 1 0 0 0 1 47 308 162 79 147 151 139 119 58 0 0 0 0 0 0 0 0 0 0 0 0 0 0 0 0 0 0 0
0 0 0 0 0 0 0 0 0 0 0 0 0 0 0 0 0 1 68 132 195 193 157 54 0 0 0 20 21 12 0 0 2 4 1 0 0 0 0 0 0 0 0 0 0 0 0 0 0
0 0 0 0 0 0 0 0 0 0 0 0 0 0 0 2 2 6 65 114 85 85 50 1 0 0 0 0 1 0 0 1 0 0 0 0 0 0 0 0 0 0 0 0 0 0 0 0 0
0 0 0 0 0 0 0 0 0 0 0 0 0 0 0 0 1 1 21 45 30 26 0 1 0 0 0 1 1 1 2 2 2 1 0 0 0 0 0 0 0 0 0 0 0 0 0 0 0
0 0 0 0 0 0 0 0 0 0 0 0 0 0 0 1 0 0 1 1 1 1 2 1 1 1 1 0 0 0 0 0 0 0 0 0 0 0 0 0 0 0 0 0 0 0 0 0 0
0 0 0 0 0 0 0 0 0 0 0 0 0 0 0 0 0 0 1 2 2 2 2 1 0 1 0 0 0 0 0 1 1 2 1 2 2 0 0 0 0 0 0 0 0 0 0 0 0
0 0 0 0 0 0 0 0 0 0 0 0 0 0 0 0 0 1 1 2 2 1 1 1 1 0 1 1 1 1 2 2 1 1 2 2 0 0 0 0 0 0 0 0 0 0 0 0 0
0 0 0 0 0 0 0 0 0 0 0 0 0 0 0 0 0 0 0 0 0 0 0 0 0 0 0 0 0 0 0 0 0 0 0 0 0 0 0 0 0 0 0 0 0 0 0 0 0

GFSSGP_con_mlcape_132.txt.gz
CAPE
0 0 1 149 0 0 0 0 0 0 0 0 0 0 0 165 135 3 472 573 109 0 910 1714 1646 1648 1288 1775 1351 489 169 238 713 799 629 107 6 3 2 6 2 73 211 316 393 433 416 373 322
0 18 133 39 0 0 0 0 0 0 0 0 0 52 40 183 448 586 751 664 216 85 1279 1900 1720 1666 1493 1540 1260 664 170 215 667 847 585 41 5 4 6 5 11 84 141 372 382 327 288 251 187
0 0 22 0 0 0 0 0 0 0 0 0 0 198 867 866 534 738 434 801 385 503 1507 1865 1897 1598 1292 1525 1235 849 268 168 315 836 413 49 5 5 6 6 13 129 172 316 193 185 113 98 142
0 0 0 0 0 0 0 0 0 0 0 0 0 0 773 362 267 194 710 950 446 875 1598 2071 1884 1610 1682 1620 1338 1066 438 196 164 557 468 193 5 5 4 7 8 105 91 186 134 89 108 51 47
0 0 0 0 0 0 0 0 0 0 0 0 0 0 871 408 314 794 1260 1282 500 987 1669 2110 1988 1652 1452 1619 1432 1220 635 333 275 964 656 252 4 9 5 8 9 46 11 110 106 111 56 69 47
0 0 0 0 0 0 0 0 0 0 0 0 0 0 577 482 416 974 1681 1820 1362 619 1604 2112 1530 1345 1421 1637 1451 1336 931 510 332 907 615 300 2 9 6 7 10 10 16 39 37 30 19 55 62
0 0 0 0 0 0 0 0 0 0 0 0 0 34 0 160 340 939 1561 2127 2022 1470 1758 1606 1256 1060 924 1392 1456 1334 1102 792 408 570 839 335 15 3 3 6 12 24 27 36 47 31 26 55 42
0 0 0 0 0 0 0 0 0 0 0 0 0 0 14 377 584 974 1365 1680 1962 1817 975 709 476 436 316 509 997 1011 938 986 561 610 704 161 134 24 2 0 10 43 41 91 55 25 27 14 17
0 0 0 0 0 0 0 0 0 0 0 0 0 0 0 525 895 738 1291 1439 1233 1460 758 247 142 19 1 6 67 781 836 780 914 799 632 176 86 29 1 0 1 41 26 50 36 29 19 0 0
0 0 0 0 0 0 0 0 0 0 0 0 0 0 0 342 451 623 799 1125 1146 937 646 285 88 114 13 0 0 0 427 583 404 557 467 148 58 11 0 0 0 45 28 50 35 11 0 0 0
0 0 0 0 0 0 0 0 0 0 0 0 0 0 0 24 100 234 150 453 550 758 766 415 193 13 0 0 0 0 0 267 214 429 325 154 0 1 0 0 0 20 13 25 3 0 0 0 0
0 0 0 0 0 0 0 0 0 0 0 0 0 0 0 0 0 0 0 0 58 365 542 381 23 0 0 0 0 0 22 241 184 370 330 120 0 0 0 0 0 0 2 0 0 0 0 0 0
0 0 0 0 0 0 0 0 0 0 0 0 0 0 0 0 0 0 0 0 0 24 138 121 0 0 0 0 5 1 8 145 201 323 282 121 13 0 0 0 0 0 0 0 0 0 0 0 0
0 0 0 0 0 0 0 0 0 0 0 0 0 0 0 0 0 0 0 0 0 0 1 0 0 0 17 0 23 29 28 197 160 291 266 136 12 0 0 0 0 0 0 0 0 0 0 0 0
0 0 0 0 0 0 0 0 0 0 0 0 0 0 0 0 0 0 0 0 0 0 0 0 0 41 0 3 0 0 35 135 92 238 250 127 0 0 0 0 0 0 0 0 0 0 0 0 0
0 0 0 0 0 0 0 0 0 0 0 0 0 0 0 0 0 0 0 0 0 0 0 22 51 71 9 18 3 0 0 23 138 170 203 91 0 0 0 0 0 0 0 0 0 0 0 0 0
0 0 0 0 0 0 0 0 0 0 0 0 0 0 0 0 0 0 0 0 0 0 0 52 122 212 48 20 0 0 8 90 179 131 165 70 0 0 0 0 0 0 0 0 0 0 0 0 0
0 0 0 0 0 0 0 0 0 0 0 0 0 0 0 0 0 0 0 0 0 0 32 201 236 221 39 12 7 0 0 33 121 115 128 50 0 0 0 0 0 0 0 0 0 0 0 0 0
0 0 0 0 0 0 0 0 0 0 0 0 0 0 0 0 0 0 0 0 0 0 419 584 494 254 130 10 0 0 0 44 101 121 16 0 0 0 0 0 0 0 0 0 0 0 0 0 0
0 0 0 0 0 0 0 0 0 0 0 0 0 0 0 0 0 0 0 0 0 0 495 689 605 380 287 94 13 8 1 82 30 8 0 0 0 0 0 0 0 0 0 0 0 0 0 0 0
0 0 0 0 0 0 0 0 0 0 0 0 0 0 0 0 0 0 0 0 0 0 414 590 561 504 398 226 52 15 1 3 2 1 1 0 0 0 0 0 0 0 0 0 0 0 0 0 0
0 0 0 0 0 0 0 0 0 0 0 0 0 1 0 0 0 1 0 0 0 0 274 400 336 284 230 263 116 53 35 18 1 1 0 0 0 0 0 0 0 0 0 0 0 0 0 0 0
0 0 0 0 0 0 0 0 0 0 0 0 0 0 0 0 0 23 6 20 75 42 88 69 106 112 73 192 138 62 2 0 1 0 0 0 0 0 0 0 0 0 0 0 0 0 0 0 0
0 0 0 0 0 0 0 0 0 0 0 0 0 1 2 0 0 57 80 117 49 47 23 8 6 6 67 86 40 5 0 0 0 0 0 0 0 0 0 0 0 0 0 0 0 0 0 0 0
0 0 0 0 0 0 0 0 0 0 0 0 0 0 0 0 3 11 70 185 70 38 13 1 0 0 1 0 0 0 1 1 1 2 1 1 0 0 0 0 0 0 0 0 0 0 0 0 0
0 0 0 0 0 0 0 0 0 0 0 0 0 0 1 0 0 5 3 45 43 33 9 0 0 2 1 1 2 1 0 0 1 0 1 0 0 0 0 0 0 0 0 0 0 0 0 0 0
0 0 0 0 0 0 0 0 0 0 0 0 0 0 1 0 0 2 0 0 0 0 0 0 0 0 0 1 1 3 2 1 0 0 0 0 0 0 0 0 0 0 0 0 0 0 0 0 0
0 0 0 0 0 0 0 0 0 0 0 0 0 0 2 2 0 0 1 1 0 1 0 0 0 1 1 0 1 1 2 0 0 2 1 1 1 0 0 0 0 0 0 0 0 0 0 0 0
0 0 0 0 0 0 0 0 0 0 0 0 0 0 2 0 1 0 1 2 2 2 2 1 0 0 0 0 0 0 1 1 1 2 1 1 1 0 0 0 0 0 0 0 0 0 0 0 0
0 0 0 0 0 0 0 0 0 0 0 0 0 0 0 0 0 0 0 0 0 0 0 0 1 0 0 2 2 2 1 0 0 1 1 1 1 0 0 0 0 0 0 0 0 0 0 0 0

GFSSGP_con_mlcape_135.txt.gz
CAPE
0 0 1 3 0 0 0 0 0 0 0 0 0 0 0 199 100 24 702 446 349 142 1067 1951 1504 1282 1525 1113 629 437 510 933 1004 643 74 5 2 3 7 36 312 410 514 525 521 550 423 385 279
0 0 41 0 0 0 0 0 0 0 0 0 0 104 163 328 485 695 745 835 261 335 1225 1950 1663 1317 1711 1256 798 539 429 1026 1110 774 101 7 4 3 6 5 247 263 470 457 413 453 413 380 115
0 0 0 0 0 0 0 0 0 0 0 0 0 128 861 803 595 756 318 788 237 681 1443 2106 1790 1413 1873 1469 923 617 465 1070 1103 687 101 7 6 6 5 121 186 386 349 331 297 208 251 208 24
0 0 0 0 0 0 0 0 0 0 0 0 0 0 624 523 271 303 633 976 351 1108 1859 2237 1845 1332 1430 1545 1202 693 490 744 1214 648 215 6 4 8 6 79 238 345 251 252 217 172 135 38 30
0 0 0 0 0 0 0 0 0 0 0 0 0 0 470 417 239 843 1271 1096 742 1201 1950 2275 1578 1412 1212 1606 1312 886 571 492 926 747 299 6 5 8 10 11 195 172 168 183 155 109 67 75 58
0 0 0 0 0 0 0 0 0 0 0 0 0 0 59 410 279 917 1364 1681 1182 1338 1993 2222 1908 1534 1202 1425 1502 1103 687 553 823 760 506 121 3 9 4 13 12 9 127 91 53 67 71 66 64
0 0 0 0 0 0 0 0 0 0 0 0 0 0 0 100 315 993 1348 1926 1775 1610 2095 1751 1777 1560 1165 1411 1546 1300 885 615 988 896 621 190 5 7 8 9 8 22 104 42 45 66 80 68 62
0 0 0 0 0 0 0 0 0 0 0 0 0 0 0 0 543 1082 1438 1607 2145 1536 1386 1194 1146 1040 979 1148 1025 1150 1086 755 736 980 721 190 3 7 3 5 45 12 63 57 28 62 67 58 44
0 0 0 0 0 0 0 0 0 0 0 0 0 0 0 6 817 781 1313 1543 1652 1373 919 821 713 490 514 359 377 737 816 1033 595 896 554 122 52 4 1 5 81 107 65 43 27 12 46 15 8
0 0 0 0 0 0 0 0 0 0 0 0 0 0 0 0 416 436 868 1248 1452 1390 902 744 724 558 381 99 0 13 15 154 516 716 494 272 162 11 0 0 82 97 41 43 19 6 0 0 0
0 0 0 0 0 0 0 0 0 0 0 0 0 0 0 0 0 2 25 184 891 1227 1195 585 599 551 419 341 69 20 0 0 42 316 385 324 214 5 0 0 78 40 32 19 2 0 0 0 0
0 0 0 0 0 0 0 0 0 0 0 0 0 0 0 0 0 0 0 0 5 313 744 1114 717 308 27 50 4 36 43 7 0 104 291 267 231 21 0 0 2 2 1 0 0 0 0 0 0
0 0 0 0 0 0 0 0 0 0 0 0 0 0 0 0 0 0 0 0 0 3 187 663 885 363 0 5 0 0 0 0 76 24 248 236 182 26 0 0 0 0 0 0 0 0 0 0 0
0 0 0 0 0 0 0 0 0 0 0 0 0 0 0 0 0 0 0 0 0 0 0 62 320 248 0 0 17 48 74 23 3 64 164 256 195 16 0 0 0 0 0 0 0 0 0 0 0
0 0 0 0 0 0 0 0 0 0 0 0 0 0 0 0 0 0 0 0 0 0 0 0 58 63 130 264 171 88 2 134 41 66 101 184 150 3 0 0 0 0 0 0 0 0 0 0 0
0 0 0 0 0 0 0 0 0 0 0 0 0 0 0 0 0 0 0 0 0 0 0 0 80 174 251 156 32 47 4 1 77 170 118 132 82 0 0 0 0 0 0 0 0 0 0 0 0
0 0 0 0 0 0 0 0 0 0 0 0 0 0 0 0 0 0 0 0 0 0 0 0 106 226 253 97 10 24 15 0 52 97 68 59 25 0 0 0 0 0 0 0 0 0 0 0 0
0 0 0 0 0 0 0 0 0 0 0 0 0 0 0 0 0 0 0 0 0 0 0 0 82 325 347 161 42 12 3 0 47 15 92 42 28 0 0 0 0 0 0 0 0 0 0 0 0
0 0 0 0 0 0 0 0 0 0 0 0 0 0 0 0 0 0 0 0 0 0 0 259 175 368 408 84 0 0 0 0 106 1 36 33 14 0 0 0 0 0 0 0 0 0 0 0 0
0 0 0 0 0 0 0 0 0 0 0 0 0 0 0 0 0 0 0 0 0 0 53 588 386 424 442 99 47 1 0 56 27 4 4 17 0 0 0 0 0 0 0 0 0 0 0 0 0
0 0 0 0 0 0 0 0 0 0 0 0 0 0 0 0 2 0 0 0 0 0 202 624 632 488 488 226 83 10 2 1 1 0 0 0 0 0 0 0 0 0 0 0 0 0 0 0 0
0 0 0 0 0 0 0 0 0 0 0 0 0 0 0 1 6 6 3 12 23 129 327 488 516 634 593 431 160 67 14 9 0 4 0 0 0 0 0 0 0 0 0 0 0 0 0 0 0
0 0 0 0 0 0 0 0 0 0 0 0 0 0 0 0 0 48 38 10 13 21 43 66 189 148 194 342 158 117 39 0 3 1 0 0 0 0 0 0 0 0 0 0 0 0 0 0 0
0 0 0 0 0 0 0 0 0 0 0 0 0 0 0 0 3 9 24 40 56 30 11 1 42 119 127 123 82 78 24 1 1 0 0 0 0 1 0 0 0 0 0 0 0 0 0 0 0
0 0 0 0 0 0 0 0 0 0 0 0 0 0 0 0 0 10 23 18 46 37 10 2 2 2 0 1 1 1 2 2 3 2 0 0 1 1 0 0 0 0 0 0 0 0 0 0 0
0 0 0 0 0 0 0 0 0 0 0 0 0 0 0 0 0 0 0 11 4 9 12 2 1 0 0 0 0 1 0 1 3 1 1 2 1 0 0 0 0 0 0 0 0 0 0 0 0
0 0 0 0 0 0 0 0 0 0 0 0 0 0 0 0 0 2 0 0 0 0 1 1 1 2 2 3 2 1 2 1 1 2 2 1 0 0 0 0 0 0 0 0 0 0 0 0 0
0 0 0 0 0 0 0 0 0 0 0 0 0 0 0 0 1 1 0 0 0 0 1 1 0 2 1 2 4 2 1 0 2 1 0 0 0 0 0 0 0 0 0 0 0 0 0 0 0
0 0 0 0 0 0 0 0 0 0 0 0 0 0 0 0 0 1 2 2 2 1 1 1 1 1 0 2 3 3 2 1 1 0 0 0 0 0 0 0 0 0 0 0 0 0 0 0 0
0 0 0 0 0 0 0 0 0 0 0 0 0 0 0 0 0 1 1 0 0 0 0 0 0 0 1 1 1 2 3 3 2 1 1 1 1 0 0 0 0 0 0 0 0 0 0 0 0

GFSSGP_con_mlcape_138.txt.gz
CAPE
0 0 232 75 0 0 0 0 0 0 0 0 0 0 0 317 588 667 1178 997 811 318 1657 1876 1436 1827 1317 792 719 544 527 546 487 111 14 0 30 133 377 547 589 576 607 610 517 493 471 355 174
0 72 232 0 0 0 0 0 0 0 0 0 0 233 271 781 888 1076 1121 989 832 432 1655 2043 1592 1808 1606 1073 902 1026 1187 1280 670 246 53 2 1 46 184 470 486 529 549 583 595 474 357 276 165
0 3 0 0 0 0 0 0 0 0 0 0 0 55 969 1201 939 1029 904 1230 382 573 1752 2144 1695 1758 1708 1241 937 829 1164 1385 1052 378 132 13 3 4 92 345 496 462 544 540 470 445 319 151 1
0 0 0 0 0 0 0 0 0 0 0 0 0 15 778 939 832 930 1442 1253 305 799 1573 2159 1630 1536 1765 1510 1176 908 1344 1519 1120 428 149 28 6 3 353 367 465 437 388 365 342 296 165 61 3
0 0 0 0 0 0 0 0 0 0 0 0 0 0 534 775 571 1339 1693 1193 174 776 1267 2495 1735 1640 1771 1707 1338 989 1262 1590 1195 522 104 13 5 4 301 450 350 335 304 298 266 201 126 194 121
0 0 0 0 0 0 0 0 0 0 0 0 0 0 226 322 561 1328 1731 1608 807 825 1280 2164 1883 1591 1554 1768 1590 1152 933 1486 1154 713 123 13 7 4 137 297 290 249 198 217 178 128 145 110 75
0 0 0 0 0 0 0 0 0 0 0 0 0 0 0 124 625 1415 1688 2165 1483 936 1233 2230 2087 1605 1315 1520 1665 1356 914 913 1335 852 298 27 5 6 2 0 63 181 140 123 116 76 106 88 64
0 0 0 0 0 0 0 0 0 0 0 0 0 0 0 0 519 1239 1798 1681 2119 1248 1561 2131 1996 1697 1576 1332 1162 1238 874 801 1308 830 431 2 4 9 6 0 31 104 83 94 74 98 105 82 43
0 0 0 0 0 0 0 0 0 0 0 0 0 0 0 0 642 882 1357 1587 1584 1865 1577 2174 1985 1943 1822 1754 1448 1016 845 389 1107 726 407 88 7 7 1 38 50 147 53 45 54 71 41 19 10
0 0 0 0 0 0 0 0 0 0 0 0 0 0 0 0 2 339 665 1253 1553 1745 1885 1591 1780 1698 1568 1056 1072 799 696 229 67 700 479 287 36 20 13 93 130 126 45 26 11 52 15 12 14
0 0 0 0 0 0 0 0 0 0 0 0 0 0 0 0 0 0 2 153 897 1755 1867 1634 1807 1747 1516 865 620 277 75 0 34 293 479 465 234 8 3 113 83 81 42 33 2 0 0 3 10
0 0 0 0 0 0 0 0 0 0 0 0 0 0 0 0 0 0 0 0 0 291 1410 2015 1547 1614 1556 1331 805 504 230 84 47 71 130 310 288 2 0 24 21 34 47 17 4 0 0 0 0
0 0 0 0 0 0 0 0 0 0 0 0 0 0 0 0 0 0 0 0 0 0 193 915 1601 1501 1058 754 529 418 326 143 87 3 0 42 263 78 0 16 67 15 22 21 0 0 0 0 3
0 0 0 0 0 0 0 0 0 0 0 0 0 0 0 0 0 0 0 0 0 0 0 0 352 1504 1347 699 425 310 148 109 201 29 0 21 261 177 27 4 18 22 10 0 0 0 0 0 0
0 0 0 0 0 0 0 0 0 0 0 0 0 0 0 0 0 0 0 0 0 0 0 0 1 525 960 757 511 520 481 461 43 69 115 138 238 172 13 0 7 11 1 0 0 0 0 0 0
0 0 0 0 0 0 0 0 0 0 0 0 0 0 0 0 0 0 0 0 0 0 0 0 0 227 729 858 892 656 481 393 258 51 53 178 293 151 15 0 0 1 1 0 0 0 0 0 0
0 0 0 0 0 0 0 0 0 0 0 0 0 0 0 0 0 0 0 0 0 0 0 0 0 361 763 908 654 512 263 289 205 153 124 193 180 61 3 0 0 0 0 0 0 0 0 0 0
0 0 0 0 0 0 0 0 0 0 0 0 0 0 0 0 0 0 0 0 0 0 0 0 0 446 831 726 567 327 275 163 250 87 93 51 59 32 0 0 0 0 0 0 0 0 0 0 0
0 0 0 0 0 0 0 0 0 0 0 0 0 0 0 0 0 8 14 0 0 0 0 0 20 394 828 619 522 257 265 107 138 24 14 18 5 0 0 0 0 0 0 0 0 0 0 0 0
0 0 0 0 0 0 0 0 0 0 0 0 0 0 0 0 1 12 39 93 25 3 35 204 596 549 783 659 482 375 185 134 101 35 12 23 1 0 0 0 0 0 0 0 0 0 0 0 0
0 0 0 0 0 0 0 0 0 0 0 0 0 0 3 6 6 9 106 263 333 438 486 608 516 578 701 707 666 310 9 0 3 8 10 9 0 0 0 0 0 0 0 0 0 0 0 0 0
0 0 0 0 0 0 0 0 0 0 0 0 0 0 6 1 1 10 7 32 103 320 574 765 619 633 928 714 698 210 7 2 2 0 0 0 0 0 0 0 0 0 0 0 0 0 0 0 0
0 0 0 0 0 0 0 0 0 0 0 0 0 0 3 1 2 12 3 7 17 60 260 565 682 611 954 744 630 227 55 2 2 0 9 2 1 0 0 0 0 0 0 0 0 0 0 0 0
0 0 0 0 0 0 0 0 0 0 0 0 0 0 2 3 1 6 8 2 16 23 38 136 197 151 345 446 381 143 22 2 0 0 0 1 4 1 0 0 0 0 0 0 0 0 0 0 0
0 0 0 0 0 0 0 0 0 0 0 0 0 0 1 1 2 3 6 12 7 10 22 25 50 42 44 113 77 56 25 2 2 3 0 0 1 2 0 0 0 0 0 0 0 0 0 0 0
0 0 0 0 0 0 0 0 0 0 0 0 0 0 0 0 1 0 1 25 17 3 3 2 4 4 4 2 3 2 2 2 2 1 3 3 0 2 2 0 0 0 0 0 0 0 0 0 0
0 0 0 0 0 0 0 0 0 0 0 0 0 0 1 0 0 0 0 1 5 3 3 0 3 4 3 4 4 2 2 2 2 3 3 2 2 1 3 2 0 0 0 0 0 0 0 0 0
0 0 0 0 0 0 0 0 0 0 0 0 0 0 1 1 0 0 0 0 2 3 3 3 3 3 4 3 3 3 3 4 3 1 2 0 0 0 0 0 0 0 0 0 0 0 0 0 0
0 0 0 0 0 0 0 0 0 0 0 0 0 0 0 0 1 0 0 0 1 1 1 2 2 1 1 3 3 2 4 4 2 1 1 0 0 0 0 0 0 0 0 0 0 0 0 0 0
0 0 0 0 0 0 0 0 0 0 0 0 0 0 0 0 0 0 0 0 0 0 0 0 1 1 2 4 2 0 2 2 2 2 4 3 3 1 1 0 0 0 0 0 0 0 0 0 0

GFSSGP_con_mlcape_141.txt.gz
CAPE
0 0 29 1 0 0 0 0 0 0 0 0 0 1 22 128 868 1087 1333 1428 700 394 1931 1886 1591 1339 943 731 616 282 187 157 158 34 26 84 436 673 717 671 646 694 694 639 602 491 403 317 194
0 0 0 0 0 0 0 0 0 0 0 0 0 28 87 1064 979 1357 1459 1139 1215 488 2294 2112 1675 1693 1288 1028 871 616 587 629 416 136 29 80 252 440 655 612 507 499 619 646 524 446 377 210 75
0 0 0 0 0 0 0 0 0 0 0 0 0 0 504 1367 1082 1119 1283 1294 808 596 2278 2137 1662 2052 1610 1306 1195 1208 1438 1203 642 244 62 28 129 323 553 605 583 540 588 563 487 438 239 46 4
0 0 0 0 0 0 0 0 0 0 0 0 0 0 437 914 1130 1334 1696 1105 497 673 2056 2242 1826 2099 1874 1470 1319 1299 1531 1343 756 476 143 32 79 185 459 632 631 585 564 502 473 349 76 2 2
0 0 0 0 0 0 0 0 0 0 0 0 0 0 146 665 853 1482 1803 977 373 780 2105 2442 1924 2137 2132 1704 1445 1197 1609 1408 919 597 219 82 22 456 595 645 581 507 464 410 348 280 218 264 134
0 0 0 0 0 0 0 0 0 0 0 0 0 0 87 302 669 1441 1780 1363 332 836 1184 2232 1975 1870 2011 1999 1721 1280 1652 1632 1037 607 247 143 52 508 655 554 476 455 447 313 242 240 232 121 69
0 0 0 0 0 0 0 0 0 0 0 0 0 0 1 33 527 1232 1700 2030 1417 917 1077 2239 2251 1692 1650 1835 1836 1320 1292 1728 1231 731 290 57 7 345 592 519 446 340 341 278 237 195 167 114 97
0 0 0 0 0 0 0 0 0 0 0 0 0 0 0 0 28 911 1472 1711 2179 1309 1182 1764 2116 1943 1663 1265 1377 1268 634 965 1290 728 371 57 4 6 246 247 374 273 242 218 163 111 87 74 64
0 0 0 0 0 0 0 0 0 0 0 0 0 0 0 0 0 234 717 1434 1671 2087 1443 1885 1842 1725 1905 1765 1577 1217 799 185 1109 711 313 49 29 8 0 9 262 195 183 222 184 68 58 37 10
0 0 0 0 0 0 0 0 0 0 0 0 0 0 0 0 0 0 15 179 1391 1271 1794 1512 1733 1632 1648 1572 1310 1443 1195 386 564 450 277 179 97 44 15 86 185 191 125 129 123 78 43 26 4
0 0 0 0 0 0 0 0 0 0 0 0 0 0 0 0 0 0 0 0 10 874 1686 1774 1689 1551 1544 1547 1089 712 752 138 37 82 236 242 182 80 139 126 22 104 68 54 54 51 66 49 29
0 0 0 0 0 0 0 0 0 0 0 0 0 0 0 0 0 0 0 0 0 0 385 1909 1833 1670 1536 1356 1397 778 404 203 6 50 63 16 166 146 61 140 38 74 52 35 8 4 4 3 9
0 0 0 0 0 0 0 0 0 0 0 0 0 0 0 0 0 0 0 0 0 0 0 586 1599 1849 1675 1528 1228 985 575 273 184 104 0 7 1 0 29 144 116 127 46 25 12 3 1 0 3
0 0 0 0 0 0 0 0 0 0 0 0 0 0 0 0 0 0 0 0 0 0 0 0 126 1229 1867 1412 1238 965 883 676 324 164 0 23 0 10 61 10 74 30 7 3 0 0 0 7 6
0 0 0 0 0 0 0 0 0 0 0 0 0 0 0 0 0 0 0 0 0 0 0 0 5 38 1172 1652 1248 1055 884 618 624 157 1 0 0 12 52 39 78 56 8 0 0 0 0 0 0
0 0 0 0 0 0 0 0 0 0 0 0 0 0 0 0 0 0 0 0 0 0 0 0 0 11 311 1380 1137 1018 937 783 584 468 129 0 59 228 88 56 57 38 2 0 0 0 0 0 1
0 0 0 0 0 0 0 0 0 0 0 0 0 0 0 0 0 0 5 1 0 0 0 0 0 2 355 879 1141 1000 855 771 822 507 364 252 118 219 49 10 39 21 0 0 0 0 0 0 0
0 0 0 0 0 0 0 0 0 0 0 0 0 0 0 0 0 0 2 7 12 18 0 0 0 0 453 895 1063 948 754 524 565 665 371 199 215 182 53 22 16 1 0 0 0 0 0 0 0
0 0 0 0 0 0 0 0 0 0 0 0 0 0 0 0 0 0 1 2 13 100 17 2 0 0 495 990 876 772 597 550 672 463 288 163 143 44 0 0 0 0 0 0 0 0 0 0 0
0 0 0 0 0 0 0 0 0 0 0 0 0 0 0 0 1 1 9 5 82 146 58 2 3 18 550 964 837 730 570 639 423 314 175 40 1 0 0 0 0 0 0 0 0 0 0 0 0
0 0 0 0 0 0 0 0 0 0 0 0 0 0 0 0 0 4 1 59 239 484 453 354 341 492 837 839 890 580 521 268 211 146 36 2 0 0 0 0 2 0 0 0 0 0 0 0 0
0 0 0 0 0 0 0 0 0 0 0 0 0 0 1 2 2 2 2 2 7 324 578 653 597 683 1017 672 731 562 330 126 31 10 6 0 0 0 0 0 0 0 0 0 0 0 0 0 0
0 0 0 0 0 0 0 0 0 0 0 0 0 0 3 2 0 2 5 2 4 25 419 737 651 582 807 647 693 554 156 2 0 0 0 1 0 0 0 0 0 0 0 0 0 0 0 0 0
0 0 0 0 0 0 0 0 0 0 0 0 0 0 0 1 2 5 2 5 14 14 42 176 234 426 935 1024 776 506 51 1 1 2 1 0 0 0 0 0 0 0 0 0 0 0 0 0 0
0 0 0 0 0 0 0 0 0 0 0 0 0 0 0 1 1 2 6 6 25 9 10 49 99 58 144 489 426 125 2 2 5 5 0 0 0 1 0 0 0 0 0 0 0 0 12 32 23
0 0 0 0 0 0 0 0 0 0 0 0 0 0 0 4 0 1 1 2 8 3 2 2 2 2 3 19 3 6 2 0 0 0 0 0 2 2 2 0 0 0 0 0 0 0 0 17 41
0 0 0 0 0 0 0 0 0 0 0 0 0 0 0 1 1 0 2 2 1 2 1 3 3 2 3 3 2 1 2 2 1 1 1 1 1 2 2 0 0 0 0 0 0 0 0 0 3
0 0 0 0 0 0 0 0 0 0 0 0 0 0 1 0 2 3 0 3 3 2 2 1 2 2 3 2 2 2 1 2 2 1 2 3 3 2 1 1 0 0 0 0 0 0 0 0 0
0 0 0 0 0 0 0 0 0 0 0 0 0 0 0 5 0 0 2 2 3 2 1 2 1 2 2 1 3 2 1 2 2 2 3 3 3 3 3 2 1 0 0 0 0 0 0 0 0
0 0 0 0 0 0 0 0 0 0 0 0 0 0 0 4 0 1 1 1 1 0 3 1 3 1 1 2 1 1 0 0 0 1 1 1 0 0 2 2 2 2 1 0 0 0 0 0 0

GFSSGP_con_mlcape_144.txt.gz
CAPE
0 0 0 0 0 0 0 0 0 0 0 0 0 0 0 647 925 588 1123 1293 675 1366 1946 1647 1310 1110 952 823 763 599 568 305 101 99 156 620 893 887 876 789 639 733 810 557 591 481 370 178 242
0 0 0 0 0 0 0 0 0 0 0 0 0 0 12 907 1062 1156 1236 1023 925 1549 1971 1833 1597 1327 1078 938 746 411 377 395 203 68 69 482 690 788 739 684 665 692 747 641 527 459 259 154 58
0 0 0 0 0 0 0 0 0 0 0 0 0 0 313 1156 1030 1197 1403 1145 993 1908 2161 2044 1848 1616 1382 1269 984 650 774 812 448 164 93 258 546 825 726 705 753 728 723 648 496 297 159 19 0
0 0 0 0 0 0 0 0 0 0 0 0 0 0 795 786 1083 1396 1559 587 879 1950 2160 2275 1850 1976 1594 1512 1324 1164 1466 1127 689 281 98 97 391 671 772 671 621 672 724 647 391 164 62 66 136
0 0 0 0 0 0 0 0 0 0 0 0 0 0 747 498 1233 1357 1443 483 475 1718 2278 2229 1875 2193 1935 1632 1644 1621 1692 1313 944 472 196 108 235 598 797 705 536 673 606 586 275 144 151 259 51
0 0 0 0 0 0 0 0 0 0 0 0 0 0 293 596 903 1364 1537 677 374 1176 2460 2386 2086 2011 2070 1860 1703 1319 1703 1515 1102 607 353 95 327 883 806 688 647 627 515 438 365 202 152 63 34
0 0 0 0 0 0 0 0 0 0 0 0 0 0 17 148 514 1043 1475 1694 1759 1018 2189 2422 2147 1950 2045 1972 1857 1383 1598 1219 1123 669 388 199 521 633 680 646 620 500 457 389 262 274 85 61 24
0 0 0 0 0 0 0 0 0 0 0 0 0 0 0 0 41 676 1389 1424 1736 1691 1229 2036 2182 1893 1776 1859 1668 1346 832 1049 1083 685 364 27 66 478 410 468 561 504 408 371 252 184 109 60 0
0 0 0 0 0 0 0 0 0 0 0 0 0 0 0 0 0 23 492 1156 887 1589 1590 1207 1673 1657 1783 1476 1295 1251 772 774 755 639 310 60 0 207 91 381 357 455 376 338 191 148 68 21 11
0 0 0 0 0 0 0 0 0 0 0 0 0 0 0 0 0 0 0 94 1040 674 919 1467 1426 1299 1465 1364 1228 1187 918 485 471 420 203 160 41 71 0 113 175 321 320 274 218 97 35 0 5
0 0 0 0 0 0 0 0 0 0 0 0 0 0 0 0 0 0 0 0 0 68 871 991 1378 1331 1372 1187 1008 785 860 249 284 310 167 21 6 1 110 44 156 168 72 133 56 28 75 2 17
0 0 0 0 0 0 0 0 0 0 0 0 0 0 0 0 0 0 0 0 0 0 0 1338 1511 1356 1438 1281 1292 760 653 383 261 276 52 16 0 0 8 86 100 73 45 42 0 35 6 35 31
0 0 0 0 0 0 0 0 0 0 0 0 0 0 0 0 0 0 0 0 0 0 0 0 1097 1566 1550 1534 1237 765 656 317 300 129 22 0 2 0 4 1 152 88 66 8 0 0 0 0 1
0 0 0 0 0 0 0 0 0 0 0 0 0 0 0 0 0 0 0 0 0 0 0 0 0 895 1694 1422 1419 1126 759 421 286 183 35 3 0 0 0 0 16 113 31 7 0 0 0 1 5
0 0 0 0 0 0 0 0 0 0 0 0 0 0 0 0 0 0 0 0 0 0 0 0 0 0 348 1880 1559 1297 1062 801 561 460 118 6 0 0 4 0 38 83 0 0 0 0 0 0 0
0 0 0 0 0 0 0 0 0 0 0 0 0 0 0 0 0 0 0 0 0 0 0 0 0 9 59 1293 1685 1244 1181 962 831 638 240 29 0 0 0 0 86 93 0 0 0 0 0 0 0
0 0 0 0 0 0 0 0 0 0 0 0 0 0 0 0 0 0 1 0 0 0 0 0 6 13 68 385 1445 1231 1164 1110 899 796 396 27 0 2 0 6 113 43 0 0 0 0 0 0 0
0 0 0 0 0 0 0 0 0 0 0 0 0 0 0 0 0 0 0 0 0 0 6 4 68 90 97 489 1388 1154 1047 920 871 811 768 392 37 17 103 63 86 13 0 0 0 0 0 0 0
0 0 0 0 0 0 0 0 0 0 0 0 0 0 0 0 0 0 0 0 0 0 1 115 132 106 82 683 1253 1048 1034 862 737 912 824 619 393 212 90 22 59 0 0 0 0 0 0 0 0
0 0 0 0 0 0 0 0 0 0 0 0 0 0 0 0 0 0 0 0 0 67 96 46 15 14 65 796 987 921 766 810 863 663 544 627 406 186 37 8 0 0 0 0 0 0 0 0 0
0 0 0 0 0 0 0 0 0 0 0 0 0 0 0 0 0 0 1 1 0 1 178 236 12 6 46 677 674 864 804 614 533 450 450 296 273 59 0 0 0 0 0 0 0 0 0 0 0
0 0 0 0 0 0 0 0 0 0 0 0 0 0 0 0 0 1 2 1 2 8 368 293 345 303 557 536 695 760 540 440 234 227 164 31 2 0 0 0 0 0 0 0 0 0 0 0 0
0 0 0 0 0 0 0 0 0 0 0 0 0 0 0 0 0 0 1 1 2 8 145 451 416 659 750 641 779 679 452 67 0 38 96 3 0 0 0 0 0 8 14 0 0 0 0 0 0
0 0 0 0 0 0 0 0 0 0 0 0 0 0 0 0 0 1 2 2 0 1 2 20 217 489 620 574 661 466 196 32 0 0 0 2 0 0 0 0 0 10 20 0 3 0 16 0 0
0 0 0 0 0 0 0 0 0 0 0 0 0 0 0 0 0 0 6 5 2 1 0 1 1 3 113 553 511 254 27 0 0 0 1 2 1 0 0 0 0 0 4 13 31 20 0 0 0
0 0 0 0 0 0 0 0 0 0 0 0 0 0 0 0 0 1 2 2 2 2 1 0 1 1 0 4 8 17 7 0 0 1 1 2 0 0 0 0 0 0 0 0 2 10 34 46 22
0 0 0 0 0 0 0 0 0 0 0 0 0 0 0 0 1 0 4 3 1 1 1 0 1 2 2 1 1 1 0 0 0 0 0 0 2 2 0 0 0 0 0 0 0 0 0 0 5
0 0 0 0 0 0 0 0 0 0 0 0 0 0 0 0 0 1 4 3 0 1 2 0 0 2 2 2 2 2 2 2 1 1 0 1 1 2 1 0 0 0 0 0 0 0 0 0 0
0 0 0 0 0 0 0 0 0 0 0 0 0 0 0 0 0 0 1 0 1 1 1 1 1 1 0 1 2 2 1 1 1 2 2 2 2 2 1 1 0 0 0 0 0 0 0 0 0
0 0 0 0 0 0 0 0 0 0 0 0 0 0 0 0 0 0 0 1 0 1 1 1 2 1 1 1 0 2 1 2 2 1 1 1 1 1 2 2 2 2 0 0 0 0 0 0 0

GFSSGP_con_mlcape_147.txt.gz
CAPE
0 0 0 0 0 0 0 0 0 0 0 0 0 0 452 743 716 419 850 1073 1370 1489 1603 1412 1158 1224 1250 1241 1267 1032 822 525 258 251 730 769 949 916 830 732 778 745 592 699 573 417 473 232 39
0 0 0 0 0 0 0 0 0 0 0 0 0 0 131 686 940 984 849 896 1659 1680 1688 1477 1431 1264 1365 1260 1059 824 528 214 158 239 488 959 922 867 783 661 645 773 633 668 446 351 243 11 28
0 0 0 0 0 0 0 0 0 0 0 0 0 0 917 854 966 1129 1054 864 1813 1919 1693 1661 1622 1354 1247 1175 901 630 574 553 260 148 395 742 841 908 823 876 819 582 665 612 342 177 67 2 10
0 0 0 0 0 0 0 0 0 0 0 0 0 34 466 741 1069 1195 972 583 1712 1914 1886 2036 1805 1560 1491 1341 939 940 1168 857 467 278 256 573 870 885 843 761 773 755 680 416 244 94 172 0 9
0 0 0 0 0 0 0 0 0 0 0 0 0 8 313 992 1080 1266 947 491 1504 2101 2044 2168 2016 1805 1725 1604 1361 1426 1620 1233 706 407 240 371 797 947 808 756 779 760 645 318 110 315 223 0 0
0 0 0 0 0 0 0 0 0 0 0 0 0 0 336 633 919 1213 1227 1079 1262 2077 2251 2292 2209 1955 1880 1794 1782 1670 1764 1470 989 610 403 413 693 978 790 777 678 702 569 420 257 393 79 17 25
0 0 0 0 0 0 0 0 0 0 0 0 0 0 120 350 530 983 1198 1249 1360 1794 1751 1839 1926 1843 1820 1859 1557 1446 1774 1540 1189 793 508 439 1093 940 765 844 688 684 627 467 191 46 4 11 18
0 0 0 0 0 0 0 0 0 0 0 0 0 0 0 0 97 905 1030 679 901 1213 1694 1477 1655 1630 1819 1862 1528 1134 1143 1066 1197 700 566 676 825 847 732 636 631 704 559 363 79 0 0 0 6
0 0 0 0 0 0 0 0 0 0 0 0 0 0 0 0 0 10 220 355 163 922 1028 1468 1365 1442 1372 1345 1251 1178 818 768 877 462 349 228 530 585 375 480 577 578 565 337 73 3 0 0 8
0 0 0 0 0 0 0 0 0 0 0 0 0 0 0 0 0 0 0 184 386 189 467 943 1287 1322 1356 1499 1145 1061 788 534 562 326 114 14 0 19 256 246 471 576 536 337 82 20 0 0 0
0 0 0 0 0 0 0 0 0 0 0 0 0 0 0 0 0 0 0 11 18 0 52 461 956 1014 1133 1175 1013 742 653 524 433 216 79 10 7 0 4 65 158 380 237 221 82 1 0 0 7
0 0 0 0 0 0 0 0 0 0 0 0 0 0 0 0 0 0 0 0 0 0 0 273 708 892 1091 1063 917 782 601 485 344 214 108 7 0 17 3 8 4 51 50 75 8 14 18 12 14
0 0 0 0 0 0 0 0 0 0 0 0 0 0 0 0 0 0 0 0 0 0 0 0 645 900 1102 1178 969 779 673 477 363 125 129 27 0 0 0 26 0 42 32 39 6 0 0 28 5
0 0 0 0 0 0 0 0 0 0 0 0 0 0 0 0 0 0 0 0 0 0 0 0 79 798 1263 1335 1133 891 740 559 411 327 136 38 9 1 0 1 7 0 72 14 0 0 0 0 1
0 0 0 0 0 0 0 0 0 0 0 0 0 0 0 0 0 0 0 0 0 0 0 0 0 143 1017 1202 1309 1066 906 702 570 250 26 0 0 7 0 0 2 0 65 2 0 0 0 0 0
0 0 0 0 0 0 0 0 0 0 0 0 0 0 0 0 0 0 0 0 0 0 0 0 0 0 0 546 1142 1258 1139 693 714 434 150 74 0 0 0 0 0 36 0 0 0 0 0 0 0
0 0 0 0 0 0 0 0 0 0 0 0 0 0 0 0 0 0 0 0 0 0 0 0 0 0 13 94 782 1097 1316 1103 876 740 391 192 40 1 2 12 4 65 0 0 0 0 0 0 0
0 0 0 0 0 0 0 0 0 0 0 0 0 0 0 0 0 0 0 0 0 0 0 0 0 7 92 202 719 952 1158 1132 1164 977 735 357 204 60 3 11 68 121 0 0 0 0 0 0 0
0 0 0 0 0 0 0 0 0 0 0 0 0 0 0 0 0 0 0 0 0 0 0 0 0 0 112 200 742 955 998 1023 900 1029 922 509 237 150 57 12 41 18 0 0 0 0 0 0 0
0 0 0 0 0 0 0 0 0 0 0 0 0 0 0 0 0 0 0 0 0 0 0 0 0 0 0 127 714 769 771 749 899 1006 932 794 512 166 158 17 17 4 0 0 0 0 0 0 0
0 0 0 0 0 0 0 0 0 0 0 0 0 0 0 0 0 0 0 0 0 2 1 0 0 0 0 110 487 595 645 820 750 733 530 529 626 461 212 80 29 0 0 0 0 0 0 0 0
0 0 0 0 0 0 0 0 0 0 0 0 0 0 0 0 0 0 0 2 1 5 18 9 10 0 0 169 549 489 589 556 476 450 420 386 306 382 283 94 6 0 0 0 0 0 0 0 0
0 0 0 0 0 0 0 0 0 0 0 0 0 0 0 0 0 0 1 2 3 3 3 12 37 102 233 257 524 554 500 301 227 194 260 84 17 87 38 0 0 0 0 0 0 0 0 0 0
0 0 0 0 0 0 0 0 0 0 0 0 0 0 0 0 0 0 3 1 1 3 0 0 29 214 426 441 542 504 363 181 83 48 63 0 0 0 0 1 0 0 0 0 0 0 0 0 0
0 0 0 0 0 0 0 0 0 0 0 0 0 0 0 0 0 1 8 0 0 0 0 0 3 63 168 440 331 190 46 0 0 2 0 0 0 0 0 1 0 0 0 1 0 0 0 0 0
0 0 0 0 0 0 0 0 0 0 0 0 0 0 0 0 0 1 1 0 0 0 0 0 0 0 32 88 86 18 1 0 0 0 1 1 1 0 0 0 0 0 0 5 2 0 4 1 0
0 0 0 0 0 0 0 0 0 0 0 0 0 0 0 0 0 1 2 1 0 0 0 0 0 0 0 0 0 0 0 0 0 1 0 0 2 1 0 0 0 0 0 1 14 8 11 22 0
0 0 0 0 0 0 0 0 0 0 0 0 0 0 0 0 0 1 2 1 0 0 0 0 0 2 2 2 1 1 0 0 0 0 1 1 3 3 0 0 0 0 0 0 0 0 0 0 0
0 0 0 0 0 0 0 0 0 0 0 0 0 0 0 0 0 1 2 0 0 0 0 0 0 0 2 2 1 1 0 1 1 0 1 1 0 1 0 0 0 0 0 0 0 0 0 0 0
0 0 0 0 0 0 0 0 0 0 0 0 0 0 0 0 0 2 1 0 0 0 1 0 1 1 1 1 2 3 2 2 2 1 1 1 1 1 1 0 0 0 0 0 0 0 0 0 0

GFSSGP_con_mlcape_153.txt.gz
CAPE
0 0 0 0 0 0 0 0 0 0 0 0 0 10 131 451 313 55 555 803 1022 1075 1233 1062 1474 1381 1264 936 1289 994 707 382 335 806 867 793 866 972 1051 944 935 498 840 574 469 543 612 470 334
0 0 0 0 0 0 0 0 0 0 0 0 5 0 79 164 772 786 802 939 1110 1268 1297 1075 1454 1480 1297 1397 1446 1160 912 503 490 987 620 1105 949 910 1094 1020 613 314 764 642 351 411 404 391 261
0 0 0 0 0 0 0 0 0 0 0 0 8 305 426 602 813 806 636 1160 1323 1414 1404 1140 1532 1442 1342 1518 1522 1313 1051 634 533 903 981 1144 1134 1055 808 498 400 694 665 504 360 346 368 325 169
0 0 0 0 0 0 0 0 0 0 0 0 0 0 448 545 842 782 891 1333 1360 1470 1456 1347 1548 1549 1536 1591 1524 1391 783 497 543 843 1181 1301 1286 1212 848 676 926 803 710 416 326 361 320 249 100
0 0 0 0 0 0 0 0 0 0 0 0 0 3 358 640 687 524 809 1487 1359 1466 1466 1633 1746 1536 1653 1675 1403 930 821 704 565 811 1148 1341 1331 1195 1166 735 1068 819 615 416 374 391 271 144 74
0 0 0 0 0 0 0 0 0 0 0 0 0 0 123 173 788 577 1180 1516 1588 1501 1532 1929 2089 1759 1486 1538 1321 1109 1401 984 775 812 984 1221 1323 1202 1168 1215 982 762 538 376 298 317 207 92 58
0 0 0 0 0 0 0 0 0 0 0 0 0 0 68 337 459 863 889 1454 1789 1748 1740 1919 1619 1297 1093 1217 1279 1468 1642 1237 1008 821 848 1060 1345 1216 1119 1037 1004 807 601 283 159 250 166 76 12
0 0 0 0 0 0 0 0 0 0 0 0 0 0 0 166 513 542 551 1073 1547 1959 1910 1492 1544 1380 1060 947 1106 1077 1072 943 1182 926 895 815 1110 1198 1032 1080 968 789 560 316 247 165 101 11 0
0 0 0 0 0 0 0 0 0 0 0 0 0 0 0 18 184 343 101 449 1025 1420 1642 1472 1434 1297 1164 1020 1070 1046 868 910 854 764 838 896 796 1066 991 999 1008 901 474 351 129 78 37 1 0
0 0 0 0 0 0 0 0 0 0 0 0 0 0 0 0 0 0 0 0 156 815 1057 1331 1348 1321 1253 1175 1031 1043 815 558 551 378 292 312 499 648 635 659 690 897 384 233 140 89 0 0 0
0 0 0 0 0 0 0 0 0 0 0 0 0 0 0 0 0 0 0 0 0 126 517 862 989 1122 1153 1041 864 768 746 413 252 145 131 169 269 277 296 278 272 163 211 52 108 10 0 0 0
0 0 0 0 0 0 0 0 0 0 0 0 0 0 0 0 0 0 0 0 4 0 0 363 768 964 1051 764 610 474 400 342 188 109 153 122 72 96 68 134 203 148 120 21 2 0 0 0 0
0 0 0 0 0 0 0 0 0 0 0 0 0 0 0 0 0 0 0 0 0 0 0 0 16 354 765 706 424 417 447 384 220 136 105 62 46 26 9 13 34 136 107 61 1 0 0 0 0
0 0 0 0 0 0 0 0 0 0 0 0 0 0 0 0 0 0 0 0 0 0 0 0 0 26 285 462 534 476 469 354 279 170 91 74 108 11 0 0 32 64 102 63 15 0 0 0 0
0 0 0 0 0 0 0 0 0 0 0 0 0 0 0 0 0 0 0 0 0 0 0 0 0 60 128 295 401 413 563 464 366 355 246 268 77 3 0 0 6 36 79 17 4 0 0 0 0
0 0 0 0 0 0 0 0 0 0 0 0 0 0 0 0 0 0 0 0 0 0 0 0 0 0 154 147 170 373 520 529 594 536 423 353 164 40 4 2 1 50 60 22 0 0 0 0 0
0 0 0 0 0 0 0 0 0 0 0 0 0 0 0 0 0 0 0 0 0 0 0 0 0 0 0 181 196 235 423 472 572 697 555 393 206 42 18 18 16 63 38 33 1 0 0 0 0
0 0 0 0 0 0 0 0 0 0 0 0 0 0 0 0 0 0 0 0 0 0 0 0 0 0 0 0 44 22 111 372 551 634 493 343 121 16 7 1 44 49 7 9 1 0 0 0 0
0 0 0 0 0 0 0 0 0 0 0 0 0 0 0 0 0 0 0 0 0 0 0 0 0 0 0 0 0 0 10 215 486 621 503 282 125 45 0 20 40 34 32 29 19 0 0 1 2
0 0 0 0 0 0 0 0 0 0 0 0 0 0 0 0 0 0 0 0 0 0 0 0 0 0 0 0 0 1 28 181 423 595 543 385 42 17 3 0 55 23 1 5 16 0 0 0 6
0 0 0 0 0 0 0 0 0 0 0 0 0 0 0 0 0 0 0 0 0 0 0 0 0 0 0 0 0 0 12 117 187 293 433 228 23 70 14 3 123 27 6 3 1 0 0 0 0
0 0 0 0 0 0 0 0 0 0 0 0 0 0 0 0 0 0 0 0 0 0 0 0 0 0 0 0 0 0 0 10 175 163 278 350 292 120 67 38 144 51 10 2 0 0 0 0 0
0 0 0 0 0 0 0 0 0 0 0 0 0 0 0 0 0 0 0 0 0 0 0 0 0 0 0 0 0 0 0 1 102 136 194 267 105 292 189 183 92 67 3 0 0 0 0 0 0
0 0 0 0 0 0 0 0 0 0 0 0 0 0 0 0 0 0 0 0 0 0 0 0 0 0 0 0 0 0 0 30 10 20 122 115 50 105 295 345 169 81 8 0 1 0 0 0 0
0 0 0 0 0 0 0 0 0 0 0 0 0 0 0 0 0 0 0 0 0 0 0 0 4 4 2 0 0 0 0 0 4 2 21 21 39 0 0 62 181 72 1 0 0 0 0 0 0
0 0 0 0 0 0 0 0 0 0 0 0 0 0 0 0 0 0 0 0 0 0 0 0 2 7 6 0 0 0 0 0 0 0 0 0 0 0 0 0 41 2 0 0 0 0 0 0 0
0 0 0 0 0 0 0 0 0 0 0 0 0 0 0 0 0 0 0 0 0 0 0 0 0 0 1 1 1 1 0 0 0 0 1 0 0 0 0 0 0 0 0 0 0 0 0 0 3
0 0 0 0 0 0 0 0 0 0 0 0 0 0 0 0 0 0 0 0 0 0 0 1 0 0 1 1 1 0 0 0 0 0 0 0 0 0 0 0 0 1 0 0 0 0 0 0 0
0 0 0 0 0 0 0 0 0 0 0 0 0 0 0 0 0 0 0 0 1 1 0 0 0 0 0 1 0 0 1 0 1 1 1 1 1 1 0 0 1 1 0 0 0 0 0 0 0
0 0 0 0 0 0 0 0 0 0 0 0 0 0 0 0 0 0 0 1 1 0 0 0 0 0 0 1 1 0 1 1 1 1 1 1 1 1 1 0 0 0 0 0 0 0 0 0 0